GFSGL_sfc_thetae_000.txt.gz
Theta_e
307 306 305 304 302 301 301 301 301 302 300 299 299 298 298 296 296 295 295 295 294 293 294 294 293 294 293 293 293 293 292 291 288 291 293 295 295 296 297 298 298 298 299
303 302 302 302 301 300 300 300 300 299 299 299 297 296 296 295 294 293 293 293 292 291 292 292 291 290 291 292 291 291 291 292 290 288 291 292 293 295 296 296 295 296 297
301 301 300 301 300 299 299 298 298 297 296 296 296 295 294 294 294 293 292 292 292 292 291 290 290 290 289 290 290 290 290 289 290 288 288 291 292 293 293 294 294 295 295
300 299 299 299 299 298 297 296 296 296 295 295 294 293 293 292 291 291 291 291 290 290 289 289 289 288 288 288 288 288 288 288 288 287 287 288 289 291 291 290 290 293 292
299 298 296 296 296 296 295 294 294 293 292 291 291 291 291 290 289 289 289 289 289 289 288 288 289 288 286 286 285 286 286 286 286 286 286 287 287 288 288 290 289 290 291
297 295 294 295 294 293 293 292 291 291 290 290 290 289 289 288 286 286 286 287 287 287 287 287 287 287 286 286 285 284 285 284 285 284 284 283 285 286 287 286 286 285 283
295 294 294 294 292 292 291 290 289 289 290 289 289 289 288 288 284 283 283 285 285 286 286 286 285 285 285 285 285 285 284 284 282 283 281 283 283 285 285 285 285 285 284
294 294 294 292 290 290 289 289 289 289 288 288 288 287 287 286 283 282 281 284 285 285 285 285 284 284 285 284 283 282 283 284 285 285 284 284 285 286 286 287 286 286 287
293 292 292 291 290 289 288 288 289 288 288 287 287 286 285 285 283 281 281 283 283 283 284 284 283 282 283 283 283 282 282 283 285 286 285 285 285 285 286 286 284 283 283
293 293 293 292 289 288 288 289 289 288 287 287 285 286 284 283 282 281 281 281 280 281 282 282 282 283 283 282 282 282 281 282 283 285 286 286 286 286 285 286 286 283 283
293 293 292 291 289 289 289 289 289 288 286 285 284 283 283 283 282 280 280 280 280 280 280 282 284 282 281 280 280 281 280 282 281 281 282 283 285 286 287 288 288 286 284
293 293 291 290 289 289 289 289 288 287 284 283 283 283 283 284 281 280 280 280 281 280 280 282 283 279 279 279 279 279 279 279 281 281 282 281 283 284 286 287 288 288 289
291 291 290 289 289 289 288 288 286 285 282 281 281 281 281 281 281 280 280 280 280 280 282 280 278 278 278 279 278 278 278 281 281 280 281 282 284 286 287 287 288 288 288
290 290 290 289 288 289 288 286 285 283 281 280 280 279 279 279 279 279 280 280 279 280 280 282 279 278 279 279 279 279 280 280 279 279 280 282 284 285 285 287 285 286 285
288 288 288 288 288 287 286 285 284 283 281 279 279 279 277 276 277 278 277 277 278 278 278 278 277 276 278 278 278 278 279 279 279 280 280 281 282 284 285 286 285 285 284
286 287 287 287 287 286 285 284 280 279 278 277 277 277 278 277 277 277 277 276 276 276 277 275 274 274 276 276 277 277 278 277 278 279 280 280 281 282 283 284 284 284 284
286 285 287 285 285 284 284 283 281 282 278 277 276 276 276 276 276 275 275 275 275 275 274 273 273 273 275 275 275 276 276 277 278 278 279 279 280 281 283 283 284 283 283
285 283 286 286 286 284 283 282 281 280 279 279 278 275 275 275 275 274 274 274 273 273 272 272 272 273 274 274 274 274 275 277 277 277 278 279 279 279 280 281 283 282 284
284 285 285 285 284 282 282 281 281 280 279 278 278 277 276 275 274 274 274 273 271 271 271 272 273 273 273 274 275 275 276 276 276 277 277 278 278 279 279 280 280 280 281
283 282 282 284 283 282 281 281 280 279 279 278 277 275 275 275 274 273 273 273 272 271 271 272 272 273 273 274 274 275 276 276 276 276 277 277 278 279 278 279 279 279 279
284 283 280 283 282 282 281 280 280 279 278 278 277 275 272 274 273 273 272 272 271 271 271 272 273 273 273 273 274 274 275 275 275 275 276 277 278 278 278 279 279 279 279
284 284 283 282 282 281 281 280 279 279 278 277 277 276 273 274 273 273 273 272 272 272 272 272 272 273 272 272 273 273 274 274 275 275 275 276 277 278 278 278 278 278 278
284 283 283 282 282 280 280 280 279 279 278 278 277 277 276 275 274 273 273 273 272 272 271 272 272 271 272 272 273 273 273 273 274 275 274 276 276 276 277 277 277 277 277
283 283 282 282 281 280 280 279 279 278 278 278 278 277 276 276 275 274 274 274 273 273 272 271 271 270 271 271 272 272 272 271 273 274 274 275 275 276 276 276 276 276 276
283 283 283 282 281 280 280 280 279 279 278 278 278 278 277 276 275 275 275 275 274 273 272 271 271 270 270 270 270 270 269 269 270 269 275 275 274 274 274 275 275 276 275
283 283 283 283 282 281 280 279 279 279 278 278 278 278 277 276 275 275 275 274 273 273 271 272 271 270 270 271 269 268 268 268 269 269 273 274 273 273 274 273 273 275 274

GFSGL_sfc_thetae_003.txt.gz
Theta_e
308 306 305 305 304 303 302 302 302 302 301 300 299 298 297 296 296 296 296 295 295 295 295 295 294 294 293 293 294 293 292 292 289 291 294 296 297 298 298 300 300 300 300
304 304 303 303 303 302 301 300 300 300 299 299 297 296 296 296 295 295 294 293 293 292 292 292 292 292 293 292 292 291 291 292 290 288 291 293 295 297 298 298 297 297 298
303 302 301 301 300 300 299 298 298 297 297 297 296 295 294 294 293 293 292 292 292 291 291 291 290 290 289 290 290 290 290 290 290 289 289 292 293 294 294 296 296 298 296
302 300 299 299 298 298 297 296 296 295 294 293 292 292 292 291 291 291 291 290 289 290 290 290 290 289 289 288 288 288 288 288 288 288 288 289 290 292 292 291 292 294 294
301 300 298 297 297 296 295 294 294 293 292 292 291 291 291 291 289 289 289 288 287 288 289 289 290 290 288 287 286 286 286 285 286 286 286 287 289 289 289 291 290 292 294
300 299 297 296 296 295 294 293 292 291 291 291 291 290 290 289 285 285 285 285 285 285 285 287 288 289 288 288 287 287 286 283 282 284 284 285 286 287 289 288 288 287 285
299 298 296 295 295 293 292 291 290 290 291 290 290 290 289 289 284 283 283 284 283 284 285 285 285 286 287 286 286 286 285 285 283 283 281 282 283 285 286 286 286 286 286
297 296 296 295 294 293 291 290 290 290 290 289 289 289 288 287 285 283 282 283 283 283 284 284 284 285 286 285 284 284 284 284 284 284 284 284 285 286 286 286 286 286 287
296 295 295 295 294 291 290 290 290 290 289 289 288 288 286 286 285 283 282 282 281 281 282 283 284 283 283 284 282 282 282 283 285 286 286 286 286 286 286 286 284 283 283
295 294 294 294 293 291 290 290 290 290 289 288 287 286 285 284 285 282 282 281 280 280 282 282 283 283 283 283 283 282 281 282 283 284 285 286 287 287 285 285 285 282 282
294 294 294 294 293 291 290 290 289 289 289 287 286 286 285 285 284 282 281 281 280 280 280 281 283 280 280 281 281 281 280 281 281 281 282 283 284 285 287 288 287 285 283
294 293 292 292 291 290 290 289 289 288 287 286 285 285 285 285 283 281 281 280 280 279 279 281 282 280 279 279 279 280 279 279 280 280 281 281 282 283 285 287 288 289 289
292 292 291 291 290 290 289 288 287 287 285 283 282 282 282 283 282 281 280 279 279 280 281 280 280 279 279 280 280 279 279 280 281 280 280 282 284 285 286 287 288 288 288
290 290 290 289 289 289 289 288 286 285 283 282 280 279 279 279 280 279 279 279 279 278 278 279 279 279 279 280 281 281 282 281 280 280 281 282 284 285 285 286 285 286 285
289 288 288 289 289 288 288 287 286 285 282 279 279 278 277 276 277 277 277 277 277 277 277 278 277 276 277 279 279 279 280 280 280 280 280 281 282 283 284 286 285 285 284
287 287 288 288 288 287 286 286 281 280 279 278 277 277 278 277 277 277 277 277 276 276 277 275 274 274 275 276 276 277 278 278 278 279 280 281 280 281 282 285 286 284 283
286 286 287 286 286 285 284 283 282 283 280 279 277 276 276 276 276 276 276 276 276 275 274 274 273 274 275 275 275 276 276 277 278 279 279 279 280 280 281 282 284 284 284
286 285 285 286 285 285 283 282 282 281 280 281 280 277 277 276 276 275 275 276 274 274 273 273 273 273 274 274 275 275 276 278 278 278 278 279 279 280 280 280 281 281 282
285 284 285 285 284 283 283 283 282 281 281 281 280 280 279 277 277 276 275 274 273 272 272 273 274 274 274 274 275 276 277 277 277 277 278 279 279 280 280 280 280 281 281
287 283 283 284 283 283 282 282 281 281 280 280 279 279 277 276 276 276 275 274 273 272 272 273 273 274 274 274 275 276 276 276 276 276 277 279 280 280 279 279 279 279 279
286 285 283 283 283 282 282 281 281 280 280 280 280 278 274 275 276 275 274 274 273 273 272 273 273 274 274 274 274 274 275 275 275 275 276 277 279 278 279 279 279 280 279
284 284 283 283 283 282 281 281 281 280 280 279 280 279 275 277 277 275 275 275 274 274 273 273 273 273 273 273 273 273 273 273 274 274 275 276 278 278 279 278 278 278 278
284 283 283 283 283 281 282 282 281 281 280 280 280 279 279 278 277 276 275 275 275 274 274 273 273 272 272 273 273 273 272 271 271 273 273 275 276 277 278 277 277 277 277
284 284 283 283 283 282 281 281 281 280 280 280 280 280 279 278 277 277 276 276 275 275 274 273 272 272 271 272 273 272 272 270 271 271 272 275 275 275 276 276 276 276 276
285 284 283 283 283 283 282 281 281 281 281 281 280 280 279 279 278 277 277 277 276 275 274 273 273 272 271 271 271 270 269 269 269 270 273 275 274 274 274 274 274 276 275
284 283 284 284 283 283 282 281 280 281 280 280 280 280 280 278 278 278 277 276 275 274 274 273 273 272 272 272 271 270 268 268 268 268 272 273 272 272 272 273 272 274 273

GFSGL_sfc_thetae_006.txt.gz
Theta_e
305 304 304 303 303 302 301 299 298 298 297 296 297 296 296 295 295 295 293 294 292 291 292 292 292 293 292 292 292 291 289 289 286 288 290 291 292 294 295 295 297 297 296
304 303 302 302 300 299 299 297 297 296 296 295 295 294 294 294 294 293 292 292 291 290 290 290 290 291 289 289 289 289 288 288 286 284 286 288 287 289 291 293 295 296 295
304 302 301 299 298 297 296 296 296 295 295 294 292 291 290 290 289 289 289 289 287 286 287 287 287 287 286 286 287 286 287 288 287 285 284 286 286 287 288 290 291 291 295
302 301 299 298 296 295 295 294 294 293 292 291 291 291 290 290 289 288 288 286 286 285 285 285 285 286 286 286 286 285 285 283 283 283 283 283 284 286 287 285 285 287 288
301 300 299 298 296 296 295 294 293 292 291 290 290 289 289 289 287 285 285 284 283 283 283 284 285 287 289 287 286 284 282 281 280 281 281 282 283 283 283 286 286 286 287
300 299 299 298 296 295 294 293 292 291 290 289 289 288 288 288 285 284 283 281 282 282 280 281 283 286 286 288 288 287 285 280 280 279 279 279 280 281 283 283 282 281 279
298 298 298 296 295 295 294 292 290 289 289 288 288 288 287 286 286 285 283 281 280 280 280 280 281 284 284 284 285 285 285 286 283 281 279 279 279 280 281 280 279 280 279
296 297 297 296 295 294 293 292 290 289 288 287 287 287 285 286 286 286 283 280 279 279 279 279 280 280 282 283 282 281 281 282 283 283 282 282 282 283 283 283 282 283 282
294 295 295 295 293 292 291 291 289 288 287 287 287 285 284 283 286 285 283 279 279 278 279 280 281 280 282 283 281 279 279 281 285 286 286 286 286 286 286 283 280 280 279
294 294 293 293 293 292 291 290 288 287 287 286 285 284 285 283 285 285 282 279 276 278 279 280 281 282 281 281 280 280 279 281 281 281 281 281 283 285 286 285 282 278 278
294 294 293 293 291 291 290 289 287 286 285 284 283 283 283 283 282 283 282 279 277 277 277 277 279 282 281 280 280 278 278 280 279 279 279 279 280 281 282 284 285 283 279
294 293 292 292 291 290 288 287 286 284 283 282 279 280 281 280 282 282 280 279 279 277 277 278 278 281 280 280 279 280 280 279 277 277 278 279 280 281 283 283 284 286 286
292 290 290 290 290 289 286 285 284 283 281 280 279 278 278 279 279 280 279 278 278 277 277 278 279 280 279 279 280 280 279 278 278 278 278 279 281 282 283 283 284 285 285
289 289 289 288 287 287 287 285 283 281 280 280 278 276 276 276 276 276 276 276 277 277 276 276 278 278 277 278 279 280 280 279 278 278 278 280 282 281 282 283 284 283 282
288 288 286 286 286 286 286 283 282 281 279 277 276 275 272 272 274 276 276 276 276 276 275 276 275 274 275 276 276 277 278 278 277 277 278 279 280 280 280 281 283 280 280
285 285 285 284 284 284 284 283 282 281 280 279 278 275 274 276 277 277 277 277 278 277 275 273 272 273 273 274 274 275 276 276 276 277 277 278 278 278 279 280 283 279 276
284 284 284 283 284 283 282 281 279 282 281 281 279 278 278 277 278 277 277 277 277 276 273 272 272 272 272 273 274 274 274 276 277 277 277 277 278 278 279 279 280 279 279
285 283 284 285 283 282 281 281 281 280 278 278 280 279 277 278 278 278 277 276 273 273 272 272 271 272 272 272 273 273 274 275 275 275 276 277 275 277 278 277 278 279 279
285 283 282 284 283 282 282 282 281 281 279 278 278 278 275 277 278 278 277 270 270 271 271 271 272 272 272 272 272 273 274 275 274 274 274 276 277 277 277 277 277 275 276
285 282 280 283 283 282 282 281 280 280 279 278 277 275 273 271 271 271 272 269 267 270 271 271 272 272 272 272 272 272 272 273 273 273 273 274 276 277 277 277 277 276 277
284 283 282 282 282 282 281 280 280 280 279 279 277 273 269 270 272 270 270 270 267 268 268 271 271 271 271 271 271 271 271 270 271 271 271 272 274 274 276 277 277 277 276
282 282 283 283 282 282 281 281 280 280 279 279 277 276 271 271 272 270 272 270 269 268 269 269 270 270 270 270 271 269 269 267 267 268 269 270 273 273 274 276 273 271 275
282 283 282 282 282 282 281 281 281 280 280 279 278 278 277 276 271 270 270 271 272 270 268 268 268 269 269 269 270 270 269 267 267 268 267 268 271 271 272 272 273 270 269
283 283 282 282 282 282 280 281 281 280 280 279 279 279 278 277 272 271 270 270 269 270 268 266 268 269 269 268 268 268 269 267 268 268 267 269 270 270 271 270 268 271 266
283 283 283 282 282 282 282 281 281 280 280 281 280 280 278 278 274 272 271 270 269 268 267 266 267 269 269 268 268 267 266 267 266 266 267 269 268 267 268 270 267 270 265
282 283 282 283 282 282 282 282 281 280 280 280 280 280 279 277 274 274 271 270 268 268 267 266 266 268 269 269 268 268 267 266 266 266 267 269 267 267 266 267 267 268 266

GFSGL_sfc_thetae_009.txt.gz
Theta_e
300 302 300 299 297 296 295 294 294 293 293 293 293 293 292 292 291 291 291 290 290 290 290 290 288 289 290 291 291 290 289 288 284 286 286 287 287 288 291 295 297 296 297
300 299 298 297 295 294 293 293 292 292 293 292 291 289 289 288 287 287 287 287 285 284 284 284 284 286 284 286 287 287 286 286 286 282 283 284 285 287 287 288 292 293 295
300 298 297 297 293 292 291 292 291 290 289 289 288 288 288 288 287 286 286 285 284 284 283 283 282 282 282 283 284 284 283 286 282 281 280 283 283 285 286 286 289 290 292
299 298 297 297 295 292 293 292 291 290 288 287 288 288 288 287 286 285 284 283 282 282 283 282 282 282 281 282 283 283 284 281 280 279 279 280 281 284 284 282 283 285 286
297 297 296 296 296 294 293 293 292 290 288 287 287 287 287 286 285 283 282 280 280 280 281 281 281 282 285 285 284 283 282 280 279 278 277 278 278 280 280 282 280 281 283
292 293 296 295 295 295 295 293 290 288 286 286 286 286 285 285 285 284 282 279 280 279 278 278 279 282 282 284 285 285 284 281 279 277 277 276 276 278 279 278 278 277 278
292 294 295 294 294 293 294 292 290 288 285 285 285 285 284 282 286 286 284 280 279 278 277 278 278 280 281 281 283 283 283 284 282 281 279 278 277 278 279 277 277 277 277
291 292 293 293 292 293 293 290 288 287 284 283 283 283 283 284 286 286 284 279 278 278 278 279 278 279 280 281 280 279 280 280 281 282 281 280 280 281 280 281 280 281 280
291 291 291 291 291 291 291 289 287 284 283 283 283 282 281 281 285 285 282 278 278 278 279 279 279 278 280 282 280 279 279 280 283 284 285 285 285 285 285 283 280 279 276
291 291 291 291 290 289 290 289 284 283 283 283 282 282 283 280 283 283 282 278 275 276 277 278 279 280 282 281 279 276 276 277 279 279 278 280 281 282 283 283 281 280 278
292 291 291 290 289 289 287 284 283 281 281 279 279 279 280 280 279 281 280 277 276 276 276 276 278 279 280 281 281 278 277 279 279 278 277 277 279 280 281 282 282 281 279
290 290 288 288 287 287 284 283 282 280 279 277 271 273 276 277 280 279 279 278 278 275 275 276 277 280 280 280 280 280 280 279 276 276 276 277 278 279 282 283 283 283 284
288 286 286 287 287 286 283 280 279 279 276 275 276 271 274 276 274 278 278 278 278 276 276 277 279 278 278 278 280 280 279 279 277 277 277 278 279 280 282 282 283 284 284
285 285 284 284 284 284 282 281 279 275 273 277 274 272 270 272 272 274 274 274 277 277 276 276 276 277 276 278 277 278 278 277 277 276 276 278 280 280 280 282 281 282 282
285 284 282 282 282 282 281 279 279 277 276 274 272 272 264 263 271 278 277 276 276 276 275 274 274 274 274 275 275 275 276 276 275 276 276 277 277 278 279 280 281 282 277
283 282 280 279 278 280 280 279 282 281 281 280 279 271 268 275 278 279 278 278 278 276 273 271 271 271 271 272 272 273 274 275 275 275 276 276 277 277 278 279 279 276 275
282 282 279 279 278 278 277 276 272 278 283 283 281 280 279 277 279 278 278 276 276 275 271 271 270 269 271 272 272 272 272 275 275 274 275 275 276 276 277 276 274 274 275
282 280 278 276 275 276 275 280 279 276 274 273 279 280 278 279 278 278 278 274 268 270 271 270 269 269 271 271 271 272 272 273 273 273 273 273 275 275 273 274 274 271 276
282 278 278 275 273 276 280 279 279 277 278 275 273 275 273 277 278 277 276 264 263 264 268 270 270 270 270 270 269 269 271 271 270 270 271 272 272 275 274 272 272 272 272
281 278 276 275 274 279 280 278 278 278 278 276 273 269 269 267 262 261 261 260 259 263 263 267 270 271 269 269 268 268 269 268 268 268 268 269 271 273 273 273 273 273 271
278 278 276 276 275 279 279 278 278 277 277 276 272 269 267 265 262 262 262 261 261 261 260 263 264 267 268 268 270 268 266 264 266 266 267 267 268 270 272 274 271 272 273
280 277 276 274 277 279 279 279 277 276 276 276 272 271 267 262 266 266 263 262 261 262 262 262 262 265 267 268 268 265 266 263 264 265 266 266 267 268 269 269 271 266 267
273 272 278 279 277 274 274 276 278 278 277 277 276 271 269 266 266 265 264 262 262 262 261 261 260 262 264 265 266 267 265 264 265 265 265 265 267 268 265 265 265 267 263
271 270 275 277 270 271 275 278 278 279 278 276 273 275 269 271 265 265 264 262 261 261 259 260 261 262 264 265 265 266 267 264 265 265 264 265 267 267 264 267 266 265 263
272 270 271 271 271 272 273 276 279 278 278 273 271 274 274 269 267 264 262 262 262 260 261 260 260 262 263 266 265 266 265 266 265 265 265 265 265 265 265 266 264 264 261
275 275 276 276 269 272 273 275 276 277 278 278 276 272 274 268 269 268 264 263 262 261 261 260 262 263 264 265 267 266 265 265 265 265 265 266 265 264 264 263 264 263 263

GFSGL_sfc_thetae_012.txt.gz
Theta_e
298 298 297 296 295 295 294 293 292 292 291 292 292 291 289 288 288 287 287 288 286 284 284 283 283 283 282 283 284 285 286 287 284 285 286 285 284 285 286 288 291 296 297
299 298 297 296 294 292 293 293 291 291 291 291 292 288 287 286 286 285 285 284 283 282 282 282 282 283 281 281 281 281 282 283 283 280 282 283 283 284 285 284 288 290 293
297 296 296 296 294 291 291 291 293 291 291 292 288 287 287 286 286 284 283 283 281 281 281 281 280 280 279 280 280 281 281 283 282 280 280 281 282 283 283 284 285 286 289
293 294 294 293 294 291 291 292 292 293 293 292 288 287 288 286 285 284 283 281 280 281 281 281 280 279 278 279 280 280 281 280 280 279 278 279 279 282 282 282 280 282 282
290 290 292 293 293 292 293 292 292 293 293 289 287 287 286 284 284 282 282 281 280 279 280 280 279 280 282 281 281 280 281 280 280 279 278 278 277 277 278 280 278 279 280
289 292 293 293 293 292 292 293 291 291 288 288 286 285 283 285 285 285 283 279 280 279 277 278 278 280 280 282 282 283 282 281 280 280 279 277 276 276 277 277 276 276 276
290 292 292 293 291 291 292 291 290 289 289 284 283 283 282 282 286 287 285 281 279 278 277 277 278 279 280 279 281 282 281 282 281 281 279 277 277 277 278 277 276 276 276
290 290 290 290 289 290 290 289 289 288 284 282 282 282 281 282 285 285 284 279 278 278 278 278 277 277 279 279 279 280 280 280 280 280 279 279 279 279 279 280 279 278 280
289 289 289 289 289 289 288 287 287 284 282 282 282 281 280 279 283 283 280 276 277 276 278 278 278 278 280 281 279 278 277 279 281 283 284 284 284 285 284 282 280 279 277
289 289 290 289 289 288 287 286 284 282 283 282 281 279 281 277 280 281 280 276 272 275 276 277 278 278 280 281 279 278 276 276 277 277 278 279 280 280 281 280 278 277 276
289 289 289 287 286 286 284 283 282 282 281 278 277 278 278 278 277 279 279 276 275 275 275 275 277 279 280 280 280 278 278 280 279 279 277 276 277 278 279 280 280 279 277
288 287 286 285 285 285 281 281 281 279 278 276 267 271 274 275 278 278 278 278 278 274 274 276 277 279 279 279 279 280 280 279 278 276 276 276 277 278 280 282 282 282 281
286 285 284 284 284 283 280 279 278 278 274 274 276 270 273 275 273 277 277 278 278 275 276 277 277 277 278 278 278 279 278 277 276 275 276 277 279 280 282 282 283 283 284
284 283 283 282 282 282 280 280 278 273 272 276 274 272 270 272 271 272 274 271 276 276 275 275 275 276 275 276 276 277 276 276 276 275 276 277 279 279 279 281 279 279 281
284 283 282 280 280 281 279 278 278 277 276 273 272 271 263 262 270 278 277 275 275 273 270 272 272 272 272 272 273 274 274 276 275 275 275 276 277 278 279 280 280 280 278
283 282 281 278 277 279 279 280 282 281 281 282 280 270 268 274 278 279 278 277 276 275 269 268 269 269 269 271 270 271 272 274 274 274 274 275 275 276 277 278 277 274 276
283 282 281 279 278 276 275 276 271 277 282 282 282 280 280 278 279 279 278 276 275 273 265 265 265 268 269 270 270 270 270 272 273 273 272 273 273 275 275 274 272 272 274
283 282 279 281 276 276 270 276 279 271 268 270 277 281 280 278 278 278 277 273 266 267 265 264 267 269 269 270 269 269 269 269 268 270 270 271 271 273 273 273 273 270 273
284 283 277 274 274 274 272 274 277 276 274 273 270 273 272 277 277 277 275 263 262 263 264 265 263 269 268 268 267 267 265 266 266 266 268 269 269 271 271 273 272 268 268
284 281 274 273 276 277 273 273 277 276 275 275 271 268 267 267 262 259 258 256 257 261 261 264 264 265 264 265 265 264 264 263 264 265 265 265 267 269 270 271 271 271 269
282 281 280 279 279 278 274 275 275 276 276 273 271 266 266 266 263 262 262 259 260 260 259 262 260 259 261 262 267 264 263 260 263 264 264 265 265 266 269 269 269 268 268
280 280 278 279 277 271 275 278 275 274 272 275 274 271 266 261 262 265 267 263 262 262 262 261 261 261 261 263 262 261 263 261 262 263 262 264 265 266 266 265 263 262 264
276 271 271 273 274 270 268 271 275 274 274 275 275 270 266 266 267 267 267 265 261 262 260 259 257 260 259 259 259 262 263 264 263 262 262 262 263 264 262 261 261 262 261
273 270 271 272 266 267 265 270 278 275 277 275 268 266 269 270 266 265 265 263 259 260 256 258 260 262 261 259 258 260 264 263 264 264 263 262 263 264 261 262 261 260 259
272 270 270 271 271 270 267 268 273 279 277 274 269 264 267 265 267 265 265 262 262 260 262 258 259 260 261 261 261 263 261 264 264 264 264 264 263 263 262 262 260 260 258
281 280 276 275 273 271 270 270 272 276 273 277 276 273 268 267 267 265 266 261 262 262 260 258 260 262 261 261 263 264 263 264 264 264 264 265 263 262 262 261 261 261 261

GFSGL_sfc_thetae_015.txt.gz
Theta_e
297 297 296 296 295 294 293 292 292 292 291 292 293 292 291 288 287 286 286 286 285 283 282 282 282 282 281 280 281 281 281 281 279 281 285 285 285 285 285 286 287 287 291
294 294 295 295 294 292 291 291 291 292 292 290 291 291 288 287 286 285 284 284 282 281 281 281 280 282 279 279 279 279 279 280 280 278 280 281 282 284 284 283 287 288 286
291 291 291 292 292 292 290 290 290 289 289 290 291 289 286 287 286 285 283 282 281 281 281 280 280 279 278 277 278 278 279 281 280 279 279 280 280 281 281 282 283 283 285
289 289 290 291 291 290 290 289 289 289 290 289 291 288 287 287 285 283 282 281 280 281 281 280 280 279 277 277 278 278 280 280 280 280 279 279 280 280 280 279 279 280 280
288 289 291 291 291 291 291 290 290 291 291 291 287 287 286 284 283 282 282 281 280 279 280 280 280 280 282 281 279 278 278 278 280 279 279 280 279 277 277 278 278 277 278
288 290 291 291 291 291 291 290 290 290 289 287 288 283 282 284 286 286 285 281 281 280 278 279 279 280 280 281 281 281 280 278 278 278 278 278 278 277 277 277 276 275 274
287 290 290 290 290 289 289 289 288 287 289 285 282 282 281 282 286 286 284 281 279 278 277 277 277 279 279 278 279 280 281 281 281 279 277 277 278 279 277 276 275 275 275
287 288 289 288 288 288 288 287 286 286 284 281 281 281 281 282 283 283 281 277 276 277 276 276 276 277 278 279 279 278 279 279 280 280 280 279 279 280 279 279 278 277 278
288 287 288 288 288 287 286 286 285 283 282 281 282 280 278 277 281 281 280 276 276 276 277 276 277 277 279 281 279 278 278 279 281 281 281 282 283 283 283 280 279 278 277
287 288 288 288 286 285 284 284 282 282 283 281 280 279 280 276 279 280 279 274 270 275 276 276 278 278 280 280 279 277 276 277 278 278 277 279 280 279 281 279 276 275 276
287 287 287 285 284 284 282 281 281 281 280 278 277 277 278 277 276 279 279 273 274 275 275 275 276 279 279 280 279 278 278 279 279 279 278 277 277 278 278 279 278 277 275
286 286 285 284 284 283 280 280 280 279 278 276 266 271 274 275 277 278 279 279 278 275 274 275 276 278 278 278 278 279 279 278 277 276 277 277 277 278 280 281 281 281 280
285 284 283 283 283 282 279 278 278 277 274 274 275 270 272 275 273 277 278 278 278 272 274 276 277 276 276 276 277 277 276 276 275 274 275 276 278 280 281 281 282 282 283
284 284 284 283 282 281 280 280 278 274 273 276 273 272 270 271 271 272 275 271 276 274 272 271 272 274 273 273 273 274 275 275 275 274 275 277 278 279 279 281 280 280 280
284 285 283 282 281 281 279 279 279 278 277 274 272 271 262 262 270 278 276 272 268 271 266 265 268 270 270 271 271 271 272 273 273 273 273 274 276 277 278 280 280 280 277
284 284 283 282 280 280 278 279 282 281 281 282 282 271 267 274 278 279 278 277 276 274 267 262 260 263 267 270 269 269 270 270 271 272 272 273 273 275 276 277 277 276 276
284 284 281 282 280 277 277 276 273 277 281 282 282 281 280 278 279 278 277 276 275 272 262 261 258 260 265 269 269 269 268 268 269 270 270 270 271 273 274 274 274 275 275
284 282 283 281 281 281 278 274 272 272 268 269 277 280 281 280 278 278 277 273 266 266 264 261 260 261 263 268 269 267 267 265 265 265 267 268 268 270 271 273 273 270 271
284 283 282 280 277 276 275 271 273 275 274 270 269 272 272 279 278 277 275 263 262 262 263 264 260 263 262 263 261 264 262 263 261 261 264 266 266 268 270 271 270 270 270
285 283 280 279 277 278 277 275 275 274 274 272 268 267 265 266 262 260 258 256 256 261 261 263 264 262 260 260 257 257 262 262 263 263 261 262 263 266 268 269 269 265 267
284 283 280 279 277 275 273 273 276 274 277 275 269 265 267 267 265 262 263 261 262 262 261 262 260 258 258 258 261 257 258 258 262 262 262 263 261 262 266 266 266 266 267
283 282 280 280 279 272 272 275 276 274 274 270 272 268 266 260 263 264 264 265 263 263 263 261 262 262 261 262 260 255 256 256 259 262 261 262 263 263 263 263 262 261 264
282 281 277 274 272 270 267 271 273 273 274 272 273 271 264 265 268 267 266 266 262 261 262 260 259 261 259 257 255 259 258 258 258 261 262 262 263 263 260 259 261 261 261
282 278 275 272 265 267 266 269 269 271 275 277 276 269 267 267 266 266 265 264 260 260 257 260 261 262 261 257 255 257 261 258 258 260 261 262 263 264 262 262 261 259 258
281 278 273 273 275 275 271 269 270 271 276 278 275 272 271 267 266 266 265 264 262 259 261 260 260 262 262 261 260 260 259 261 258 259 259 262 262 261 262 263 261 262 260
283 280 280 280 278 277 275 274 275 274 275 275 276 276 273 270 269 268 266 263 262 262 262 259 260 262 261 260 261 261 260 260 258 259 258 261 262 262 261 261 262 261 262

GFSGL_sfc_thetae_018.txt.gz
Theta_e
293 294 293 293 292 292 291 291 291 291 291 291 290 290 291 290 287 286 285 285 285 283 282 282 282 281 281 281 280 280 279 279 276 279 282 284 284 285 287 288 288 289 289
291 291 290 291 291 291 290 290 290 290 290 290 290 291 291 288 286 284 284 284 282 281 281 281 281 282 280 279 279 278 278 278 277 276 279 281 282 284 284 284 286 288 287
289 289 289 290 290 290 289 289 289 288 288 289 292 290 289 287 285 285 283 282 281 281 281 280 280 280 279 278 278 277 278 279 279 279 279 281 282 283 283 283 283 285 285
288 287 288 289 290 289 289 289 289 289 288 291 290 289 286 286 285 282 282 281 281 281 281 280 280 279 278 278 278 278 278 278 278 277 278 280 281 282 281 281 281 282 282
287 287 288 289 290 290 290 289 289 289 289 292 290 287 285 284 283 282 282 281 280 280 280 281 280 281 283 281 279 278 279 278 278 278 277 278 279 280 280 281 280 280 280
286 286 289 289 289 290 289 288 288 288 287 287 285 283 282 283 286 286 284 281 280 279 278 278 278 279 279 280 280 281 280 278 277 277 277 276 277 279 280 279 279 277 276
286 286 288 289 288 288 288 287 287 286 285 283 281 281 281 282 284 284 283 280 278 277 276 276 276 278 278 278 279 280 280 281 280 280 277 278 278 279 280 279 278 277 277
285 286 287 287 287 287 286 286 285 284 283 281 281 281 280 280 282 282 282 278 277 277 276 276 276 276 278 278 279 279 279 280 280 280 279 279 280 281 280 280 280 279 279
285 286 287 287 286 286 284 283 283 282 281 281 281 280 277 277 280 280 279 276 276 276 277 277 277 277 278 281 279 278 278 279 281 282 282 282 282 282 282 281 278 278 277
285 286 286 286 285 283 283 282 282 281 281 280 280 278 279 276 278 280 279 274 271 275 276 277 277 277 279 280 278 276 276 277 278 279 280 280 280 280 280 279 278 277 277
285 286 285 285 283 283 281 281 280 280 279 278 278 277 277 277 276 279 280 274 274 276 275 275 276 278 278 279 279 277 277 278 277 278 278 279 279 279 279 279 279 278 276
285 285 284 283 284 283 280 280 280 278 277 276 266 271 274 275 278 277 279 279 278 271 273 274 274 277 277 277 277 278 278 276 276 275 276 277 277 278 280 282 281 280 280
284 283 283 283 284 282 280 279 278 277 273 274 275 270 272 275 274 277 278 278 277 270 273 274 276 275 275 275 275 276 275 274 274 274 274 275 277 279 280 281 282 283 283
283 283 283 282 282 282 282 280 278 273 274 276 274 272 270 271 271 272 275 272 274 273 270 270 270 273 270 272 273 273 272 273 273 273 273 274 277 278 279 281 280 281 280
283 283 284 283 282 281 280 278 278 278 278 275 274 272 263 262 270 275 275 271 267 270 265 264 266 267 269 270 270 271 271 270 270 271 272 272 274 275 277 279 279 280 279
282 284 284 282 281 281 279 278 282 281 282 282 282 272 268 275 278 280 279 277 276 274 266 261 257 257 262 268 269 268 269 268 268 270 270 271 271 272 274 277 277 277 277
283 284 284 281 281 279 277 279 274 278 282 282 283 283 281 276 279 279 278 276 275 271 263 261 256 256 259 266 268 268 267 267 267 267 268 269 270 271 273 274 274 274 275
284 283 283 283 281 280 279 277 275 272 271 270 277 280 281 282 281 279 278 274 266 266 264 262 260 260 263 266 266 266 266 265 264 265 265 266 267 269 270 271 272 271 272
285 284 283 282 280 278 277 277 273 272 274 271 268 272 271 280 280 278 277 265 264 263 264 265 262 263 264 264 259 258 257 262 263 261 262 264 264 266 269 269 269 267 268
285 284 283 281 279 278 273 273 275 275 276 275 270 270 266 267 264 261 258 256 257 263 263 264 265 264 262 261 257 255 258 258 262 264 263 262 262 263 266 267 267 267 269
285 284 283 280 278 279 277 273 272 274 277 277 273 265 267 269 268 264 264 260 262 264 263 264 263 260 260 259 262 259 259 256 259 262 263 264 262 263 265 265 265 267 268
283 282 282 281 279 278 278 274 272 273 274 275 274 269 266 269 267 266 265 265 265 265 265 264 264 264 264 264 263 256 257 257 257 259 260 263 264 265 264 264 264 265 266
283 282 282 280 279 273 267 270 269 273 275 275 273 273 268 268 267 268 268 267 265 264 263 262 261 262 262 260 259 261 261 262 261 258 258 259 263 265 265 264 264 264 264
283 283 281 278 276 272 269 268 272 274 271 272 273 275 274 271 269 269 268 267 264 262 259 260 262 264 263 259 258 259 262 260 260 261 258 259 261 264 265 265 265 264 264
284 283 281 278 277 276 277 276 275 274 273 274 275 277 275 274 272 269 269 268 266 263 262 260 262 263 263 263 261 262 259 262 259 258 260 260 259 259 262 265 264 265 264
284 283 282 280 279 279 279 278 277 277 277 277 278 277 276 275 275 274 272 269 267 266 266 263 262 262 263 263 262 261 258 260 259 258 258 262 260 261 261 263 264 264 265

GFSGL_sfc_thetae_021.txt.gz
Theta_e
299 298 298 299 299 299 298 298 298 298 298 297 298 297 296 294 294 295 294 292 291 291 291 289 288 289 288 287 287 286 284 283 280 282 284 285 285 286 287 289 290 292 293
297 297 297 298 298 298 297 297 297 296 297 296 296 296 295 293 296 293 291 290 290 289 288 287 287 286 286 286 285 284 283 283 281 279 282 283 284 286 287 287 288 291 292
296 295 296 296 297 297 296 297 297 296 296 296 295 295 294 295 291 291 289 288 287 287 287 286 286 285 284 284 284 283 282 282 281 280 280 283 283 284 285 287 288 289 290
294 294 294 295 296 297 297 297 297 296 296 296 296 295 292 291 289 288 287 288 287 287 286 286 285 283 282 282 281 281 280 280 280 279 279 280 281 283 284 284 284 287 287
293 293 293 294 296 296 296 296 295 295 295 295 293 291 289 288 287 288 288 287 286 284 284 283 282 281 281 281 280 280 280 279 279 279 279 279 279 280 279 282 282 284 287
292 292 292 294 295 295 295 295 294 294 294 293 291 288 288 287 286 285 285 285 283 282 281 281 281 280 280 280 280 280 280 280 280 279 278 279 280 280 281 281 282 280 281
291 291 291 293 293 294 293 293 293 292 292 291 288 287 286 286 283 283 282 284 282 281 280 279 279 280 280 280 280 281 281 281 281 280 279 279 279 280 281 281 281 281 281
290 290 292 292 292 292 292 292 291 291 291 290 287 286 285 283 281 281 281 282 281 280 280 279 279 279 280 279 280 280 280 280 281 282 282 282 282 282 282 282 282 282 283
289 290 291 292 291 291 290 290 290 289 289 287 287 284 283 282 280 280 281 281 280 279 280 280 279 278 279 280 279 279 278 279 281 281 282 283 283 283 283 282 280 280 279
290 290 290 291 290 290 289 289 288 288 287 286 284 283 280 281 279 280 281 281 279 279 280 279 278 278 278 279 278 278 276 278 279 280 280 282 283 283 282 282 281 279 279
290 290 290 289 289 289 288 288 287 287 286 284 283 283 282 281 281 279 280 281 280 279 278 277 278 277 278 278 277 278 277 278 278 279 279 280 281 282 283 283 283 282 280
289 289 288 288 288 287 288 287 286 286 284 282 281 281 282 282 279 279 279 280 279 278 277 277 277 277 276 276 277 277 276 277 278 277 278 278 279 280 281 283 284 284 285
288 288 288 288 288 287 287 287 285 284 283 283 282 282 282 282 282 278 278 279 279 278 278 276 275 275 275 275 275 275 275 276 276 276 276 277 278 280 282 284 284 285 285
287 287 288 287 287 288 287 286 284 284 283 282 282 282 282 281 281 281 281 281 278 278 276 276 274 274 273 274 275 275 275 274 274 274 275 277 279 280 281 282 282 283 283
286 287 287 287 286 286 286 285 284 284 284 284 283 282 282 281 281 280 280 280 279 277 274 275 274 274 273 274 274 274 273 273 273 274 275 275 277 278 279 281 281 282 281
285 286 287 287 287 286 285 284 283 283 282 283 283 281 283 280 279 280 280 279 277 274 275 274 272 272 272 272 273 273 273 271 271 273 274 274 274 276 277 279 280 280 280
285 285 287 286 286 285 284 284 283 285 283 283 283 283 283 282 280 281 280 279 276 274 275 274 273 272 272 272 272 272 272 271 270 271 273 273 274 275 276 277 278 278 278
285 285 286 287 286 286 285 285 284 283 282 283 282 282 282 282 282 282 280 279 277 275 275 274 274 274 273 272 272 272 272 272 271 270 271 271 272 273 274 274 276 275 277
286 285 285 286 285 285 285 284 284 283 282 282 282 279 280 280 282 282 280 279 278 277 276 275 275 274 274 273 273 272 271 271 270 270 270 270 271 272 273 273 274 273 274
286 285 285 285 285 285 284 283 283 282 282 282 281 282 282 277 280 280 280 279 277 277 278 276 276 276 275 274 273 272 272 272 271 271 270 270 271 271 271 272 273 273 274
286 285 284 285 284 284 284 283 282 282 281 281 282 283 278 280 280 281 281 279 277 278 278 278 277 276 276 274 273 273 272 272 271 270 270 270 270 270 271 272 272 273 273
284 284 284 284 284 284 283 283 283 282 282 281 282 282 275 276 280 280 280 280 280 279 279 279 278 277 277 276 275 274 272 271 272 271 270 269 270 271 271 270 271 271 272
285 285 284 284 284 283 283 283 282 282 281 281 281 281 281 280 280 280 280 280 280 279 278 278 277 276 276 275 275 274 273 272 272 271 269 269 270 271 271 270 270 270 270
285 284 284 283 283 283 282 282 282 279 280 281 281 281 280 281 281 281 281 281 280 279 278 275 276 276 276 275 275 274 273 272 272 271 267 268 269 270 270 270 270 269 269
283 283 284 284 284 283 282 281 281 282 282 281 281 281 282 282 282 282 282 281 279 278 278 275 275 275 274 273 274 273 272 269 270 268 269 268 268 268 269 269 269 270 269
283 284 285 284 284 284 283 282 283 283 283 283 283 282 283 282 282 282 282 280 279 277 277 277 276 274 274 274 273 271 268 267 268 265 268 269 269 270 270 269 268 270 269

GFSGL_sfc_thetae_024.txt.gz
Theta_e
300 301 301 301 301 301 300 299 299 300 299 298 299 299 299 299 298 298 298 298 296 294 293 293 293 293 291 291 291 290 288 287 283 286 287 288 288 288 288 290 290 291 292
301 301 300 301 300 299 299 299 300 299 299 298 298 298 298 297 298 296 296 294 293 292 292 292 291 291 290 290 289 288 287 286 283 282 284 285 285 287 287 288 288 289 291
300 299 299 299 299 299 299 300 300 299 298 298 298 297 296 296 295 293 294 293 292 292 292 291 290 289 288 287 287 286 285 284 284 283 282 284 284 285 285 287 287 289 289
299 298 298 299 299 299 299 299 299 298 297 297 297 297 296 295 294 293 292 292 292 291 290 289 288 286 285 285 284 284 283 283 283 281 281 281 283 285 285 283 284 287 287
298 297 298 299 299 299 299 299 298 297 297 297 296 296 295 294 292 292 292 291 290 289 288 287 286 284 282 282 282 282 281 280 280 280 280 281 281 282 282 284 282 284 286
297 297 297 297 297 297 298 297 296 296 296 296 295 294 293 291 285 284 285 288 288 286 285 285 285 284 283 281 281 281 281 280 280 280 280 280 281 281 282 282 282 281 281
296 296 295 295 295 296 295 295 295 295 295 294 294 293 292 291 283 282 282 286 286 285 284 284 283 283 283 282 281 281 282 282 281 282 280 281 282 283 283 282 282 281 282
295 294 294 294 294 294 294 294 295 295 294 294 293 292 291 288 281 281 281 286 286 285 284 284 283 283 283 280 280 281 282 283 282 282 282 282 283 284 283 283 283 283 284
293 292 293 294 293 293 293 293 294 293 293 293 292 291 290 288 281 280 281 285 285 284 284 284 282 281 280 280 279 279 280 281 282 282 282 282 282 283 283 283 281 280 280
292 292 293 293 292 292 293 293 293 293 291 291 290 290 284 287 280 280 281 285 283 283 284 283 280 279 278 278 278 278 278 279 279 280 281 282 284 284 283 284 282 280 280
293 293 292 292 292 292 293 293 292 292 291 290 288 289 288 286 285 280 279 283 283 282 282 282 282 278 278 278 277 279 277 278 278 279 280 281 283 283 284 285 286 283 281
291 291 291 292 291 291 292 292 291 291 289 289 286 287 288 287 282 281 280 280 280 281 280 282 281 277 277 277 277 276 276 277 279 279 279 280 280 281 283 284 286 286 286
291 291 291 291 291 291 290 289 289 289 288 288 286 286 286 286 286 281 280 279 280 281 281 280 277 276 276 277 276 276 277 278 277 277 277 278 280 282 284 285 286 287 286
290 290 291 291 290 290 289 288 288 288 287 287 286 284 285 285 285 285 284 283 281 281 281 281 278 276 277 277 278 278 278 277 276 276 277 278 280 281 282 283 283 285 285
290 290 290 290 290 290 289 288 288 289 288 286 285 285 284 283 284 284 282 283 283 281 278 280 280 279 278 278 278 278 278 277 276 276 277 278 278 279 280 282 282 283 283
288 289 289 289 290 288 288 287 285 284 284 284 284 284 286 284 282 281 281 281 280 278 278 279 279 278 277 277 277 277 278 276 275 276 276 277 277 277 278 280 281 281 281
288 288 288 287 287 287 286 286 285 286 284 284 284 284 284 284 284 282 282 281 280 277 278 280 279 279 278 277 277 277 276 276 275 275 275 276 276 276 278 278 279 279 279
288 285 288 288 287 287 287 287 287 286 285 285 284 283 283 283 283 282 282 281 280 278 279 280 280 279 279 278 277 277 276 276 276 275 275 275 275 276 276 276 277 277 277
288 288 288 288 288 287 286 286 286 286 285 284 285 283 283 282 282 282 283 282 280 280 281 281 281 280 280 279 278 277 276 276 275 275 275 275 275 275 275 276 276 276 276
289 285 285 287 287 287 287 286 285 285 285 284 283 284 284 282 283 282 283 283 281 281 282 281 281 281 280 280 279 278 277 277 276 275 275 275 276 275 274 274 276 275 276
290 289 285 286 286 286 286 286 285 285 285 284 284 286 283 284 283 283 282 283 282 281 282 282 282 281 281 280 279 278 277 277 276 275 275 275 274 274 275 274 275 275 275
289 287 287 287 286 286 286 286 285 285 285 284 285 285 283 284 284 284 284 284 285 285 285 283 282 282 282 281 280 279 277 276 276 276 275 273 274 275 275 275 274 274 274
288 287 286 287 287 285 285 285 285 286 285 285 285 285 285 285 284 284 285 285 285 285 285 284 283 282 282 281 281 280 278 277 277 276 274 274 274 275 275 274 274 273 272
288 285 285 285 286 286 285 284 285 284 284 285 285 285 285 285 284 285 285 285 285 285 285 284 282 282 282 281 280 280 279 278 277 276 273 273 273 274 274 273 274 273 273
285 284 284 285 285 285 285 285 285 285 284 284 284 284 285 285 285 285 285 285 284 284 284 284 283 282 281 280 280 279 279 275 275 274 275 273 273 272 272 273 273 273 272
285 285 285 285 285 285 284 284 284 284 284 284 285 285 285 284 285 285 285 285 285 284 284 284 283 281 281 280 279 278 276 273 272 270 274 274 273 273 273 273 271 273 273

GFSGL_sfc_thetae_027.txt.gz
Theta_e
305 303 302 302 303 303 302 301 301 301 300 299 299 298 298 298 298 299 298 298 297 297 296 295 294 294 292 292 293 291 290 289 286 287 289 289 288 288 289 290 291 291 291
303 302 302 303 302 302 301 301 301 300 301 299 298 298 297 297 297 296 296 296 294 293 293 293 292 292 291 290 289 288 288 288 286 283 285 286 286 287 288 288 288 288 289
300 301 302 302 301 301 301 300 301 300 300 299 298 297 296 296 295 295 294 293 293 293 293 292 291 290 288 288 287 286 286 286 286 283 282 285 285 286 286 287 287 287 288
301 300 301 301 301 301 300 300 300 300 298 297 297 297 297 296 294 294 293 293 293 292 292 290 289 288 287 285 284 284 284 283 282 281 282 282 283 285 285 284 284 287 286
300 300 300 301 301 300 299 299 300 299 297 297 297 296 296 294 293 292 292 291 290 290 290 289 288 286 283 283 282 282 282 280 280 279 280 281 282 282 282 284 283 284 285
300 300 300 299 299 298 297 298 298 297 296 297 296 295 294 293 285 285 285 288 289 288 287 287 287 287 286 284 283 282 282 280 280 281 280 279 280 281 283 283 283 282 280
300 299 298 298 296 296 296 296 295 296 296 295 295 295 294 292 285 283 283 286 287 287 287 286 285 285 285 284 283 282 282 283 282 282 280 280 280 281 282 281 282 282 281
298 297 297 296 295 295 295 294 295 296 295 295 294 294 293 290 284 282 282 286 288 287 287 286 285 284 283 281 280 280 281 282 283 282 282 281 282 282 282 282 282 282 283
296 296 295 294 294 293 293 293 294 294 294 294 293 292 291 289 283 282 282 286 286 286 286 286 284 283 281 280 279 278 279 280 283 283 282 282 283 283 284 283 282 281 280
295 294 294 294 293 293 293 293 294 294 293 293 291 292 288 290 283 282 281 285 285 285 285 285 282 280 279 278 278 278 277 279 279 279 280 282 283 284 284 284 283 280 280
294 293 293 293 293 293 293 293 293 293 292 292 291 291 291 289 287 283 281 283 284 283 283 283 284 280 278 278 278 278 278 278 278 279 280 281 282 283 284 285 285 284 282
293 292 292 293 293 292 292 292 292 292 291 290 288 289 289 289 285 283 282 281 281 282 282 283 283 280 278 278 278 278 277 278 280 279 279 279 280 281 282 284 285 287 287
291 291 292 292 292 293 291 290 290 290 289 288 287 287 287 289 289 284 282 281 280 281 283 282 279 279 278 279 279 278 277 280 278 277 277 278 280 281 283 284 286 287 287
290 290 291 291 291 291 291 291 289 288 288 287 287 286 287 287 288 287 285 284 282 282 283 283 281 279 279 278 280 281 281 280 278 277 277 279 281 281 281 283 283 284 283
290 290 291 290 290 290 290 290 290 290 289 287 288 287 287 286 286 285 285 285 284 283 280 281 281 281 280 280 281 280 280 280 278 277 278 277 278 278 279 282 282 282 282
288 289 290 290 289 289 288 288 288 286 286 285 285 285 289 286 284 283 283 282 281 281 279 280 281 281 280 280 279 279 280 279 278 277 277 277 276 277 278 279 280 280 279
287 288 289 288 289 288 287 287 286 289 286 285 285 285 284 285 285 284 283 282 282 280 278 280 281 281 280 280 280 279 278 279 278 278 277 277 277 276 277 277 278 278 278
289 286 289 290 289 288 287 287 288 287 287 288 285 284 284 284 284 284 284 282 281 281 280 280 280 282 281 280 280 279 279 279 278 277 277 277 276 276 276 276 277 277 277
290 290 290 290 289 287 288 288 287 287 287 287 288 285 285 284 284 284 283 282 281 281 281 282 284 283 281 281 281 280 279 278 277 276 277 277 276 276 276 275 276 276 277
291 287 287 289 288 287 287 287 287 287 286 286 286 286 286 285 284 283 284 283 283 283 282 282 283 283 283 282 282 281 279 279 278 278 277 277 277 276 276 275 275 275 276
292 290 287 289 287 288 288 287 287 286 286 286 286 287 285 285 285 285 285 285 284 284 284 283 284 284 284 282 281 280 279 279 278 277 277 277 276 275 276 276 276 275 275
291 290 289 287 288 288 287 287 287 286 286 286 286 287 284 285 285 285 285 285 286 286 286 285 284 284 284 282 282 281 280 279 279 278 277 276 275 276 276 276 276 275 274
291 289 288 287 287 287 287 287 286 286 286 286 286 286 286 285 285 285 285 285 286 286 286 286 285 284 285 284 284 282 280 279 279 279 277 276 275 276 275 275 275 274 274
289 289 288 285 285 286 286 285 286 285 286 286 285 285 285 285 285 285 285 286 286 285 285 285 285 284 284 284 284 282 281 281 280 278 276 275 275 275 275 275 275 274 274
288 287 286 286 286 285 285 285 285 285 285 285 284 285 286 286 286 286 286 286 286 285 285 285 285 284 283 283 283 281 281 280 279 278 277 275 274 274 273 274 274 273 274
286 286 285 286 286 285 284 284 283 283 283 283 284 284 284 285 285 286 286 286 285 286 286 286 285 284 283 283 283 282 281 279 276 275 276 276 275 274 275 274 273 273 274

GFSGL_sfc_thetae_030.txt.gz
Theta_e
306 305 303 302 303 302 302 301 300 299 298 298 298 296 296 295 295 294 293 293 293 292 292 292 292 291 289 288 289 286 285 284 281 283 284 285 284 284 285 286 287 286 287
306 303 302 303 302 301 301 301 300 299 299 298 298 296 296 295 295 293 292 292 292 291 291 291 290 290 287 286 284 283 282 283 281 279 281 282 282 283 284 284 285 287 286
303 301 301 301 301 300 301 300 299 299 298 298 297 296 295 295 293 293 292 291 291 291 289 288 288 286 283 283 281 280 281 282 281 279 278 281 281 282 282 283 284 284 287
303 301 301 300 301 301 300 299 298 299 298 297 296 296 296 294 293 293 292 290 290 289 289 288 286 284 282 280 280 279 280 279 279 278 278 278 279 281 282 280 280 282 282
302 301 299 301 300 300 299 298 298 298 297 296 295 295 294 294 292 290 289 287 286 286 286 287 285 284 284 282 280 278 278 277 277 277 277 278 278 278 277 280 280 280 281
301 300 300 300 300 299 297 297 296 297 296 295 295 294 293 293 287 286 285 283 285 285 283 283 284 286 285 285 285 283 281 277 276 276 277 276 277 279 280 279 278 277 276
301 299 300 299 298 297 296 295 295 294 295 294 294 293 292 286 287 285 283 282 283 283 283 282 283 285 283 280 281 281 281 282 281 279 278 278 278 278 278 277 277 277 277
299 298 298 297 295 295 294 294 294 294 293 293 292 292 291 288 286 285 283 281 282 283 283 283 281 281 278 279 278 277 278 278 279 280 277 277 278 279 279 279 278 278 280
296 296 296 295 294 293 293 293 293 292 292 292 292 291 290 285 285 284 282 281 282 282 284 283 282 280 280 280 277 276 276 277 281 281 281 281 283 284 284 281 278 277 276
295 294 294 294 293 292 292 292 292 292 292 292 290 290 287 285 285 284 282 280 280 281 282 282 281 279 279 279 275 275 273 276 276 276 277 280 281 282 284 283 281 279 279
294 294 293 292 292 292 292 291 291 290 290 288 287 287 287 286 283 284 283 280 280 280 279 279 280 280 280 279 278 275 275 277 277 276 278 278 280 281 281 281 281 281 280
292 292 291 292 292 292 291 290 290 288 287 287 285 285 285 286 286 285 284 282 282 277 279 279 280 281 281 279 278 279 279 278 275 273 275 277 277 278 280 280 281 282 284
291 291 291 292 292 291 290 288 287 287 285 285 284 284 284 284 284 285 284 283 282 277 279 281 282 281 281 279 281 280 276 275 273 270 273 274 277 279 280 280 281 282 283
290 290 290 290 290 289 289 288 287 285 284 284 284 283 283 285 285 284 282 281 282 280 280 281 278 278 276 276 276 278 277 276 274 272 271 275 276 277 277 279 278 280 279
289 289 289 289 289 289 289 288 285 286 286 284 284 284 285 285 283 284 285 284 283 281 275 275 275 277 276 276 276 276 276 276 274 272 271 273 275 275 276 277 278 278 277
288 288 287 287 287 287 287 286 288 286 286 286 286 283 283 286 285 285 285 284 283 281 275 273 272 274 274 275 273 274 274 274 274 273 273 273 273 273 274 276 278 277 276
286 286 286 285 286 285 285 285 284 287 288 286 286 286 285 285 286 285 284 283 283 281 274 273 275 276 278 276 275 274 272 273 273 273 272 271 272 275 273 274 275 276 275
287 286 286 287 287 285 285 285 285 284 283 284 286 285 285 285 285 285 285 284 279 280 278 276 276 276 277 276 275 275 273 272 271 272 269 272 271 272 273 272 273 273 273
288 288 288 287 286 285 285 285 285 284 284 284 285 283 282 285 285 285 284 281 278 278 279 278 278 278 279 277 275 274 272 271 270 267 268 271 272 273 270 274 269 271 272
290 287 286 287 286 285 285 285 284 284 284 284 284 284 284 284 281 280 280 280 279 279 279 280 280 278 279 279 276 274 273 271 272 271 270 267 271 268 268 272 270 267 272
290 289 286 286 286 286 286 285 285 284 284 283 283 284 284 284 282 282 282 281 281 280 280 280 280 279 280 280 276 275 275 273 272 270 270 269 267 265 270 273 272 272 270
289 288 288 287 286 285 285 285 284 284 284 283 283 283 284 285 283 282 282 282 284 284 283 283 282 281 281 281 280 278 276 273 274 271 269 269 268 268 268 272 270 270 270
286 287 287 287 287 284 283 284 283 283 283 284 284 283 283 284 284 283 283 284 284 284 284 284 284 283 283 282 282 280 278 278 276 274 270 268 268 267 268 266 269 268 266
282 283 283 284 286 284 283 283 283 281 283 284 284 284 284 284 285 285 285 285 285 285 285 285 284 284 283 283 283 282 280 280 278 274 270 267 268 268 267 267 266 267 268
282 282 283 283 284 284 284 284 283 283 284 284 283 282 282 283 283 283 284 284 285 285 285 285 285 285 284 283 283 282 280 280 279 273 272 268 267 266 265 265 265 266 266
281 282 282 283 283 283 284 282 281 278 280 280 280 279 279 278 278 279 279 279 280 281 282 284 284 285 284 283 283 282 280 279 277 274 274 272 268 266 265 266 267 265 266

GFSGL_sfc_thetae_033.txt.gz
Theta_e
301 300 299 297 297 298 299 300 298 298 297 295 295 294 293 293 292 291 290 290 290 290 290 289 290 291 289 288 285 283 281 280 277 279 280 281 280 281 283 284 285 285 285
301 299 298 298 299 299 299 300 299 297 296 295 295 293 293 293 292 291 290 290 289 288 288 288 289 289 284 282 280 279 278 278 277 276 277 279 279 280 281 281 284 285 285
299 297 297 299 299 299 299 299 297 295 296 294 294 293 293 293 291 291 290 289 289 288 288 287 286 284 280 279 279 278 278 280 277 276 276 278 278 279 280 281 282 281 285
298 296 299 299 300 298 299 296 296 296 294 293 293 294 294 293 292 292 290 288 287 286 287 286 285 282 280 279 279 277 278 276 276 276 276 276 277 279 279 277 278 281 280
299 299 299 300 300 299 297 296 296 295 294 294 294 294 294 292 291 289 288 286 285 284 285 285 283 284 286 282 279 277 277 276 275 275 275 276 276 277 277 280 277 277 278
300 300 300 299 298 296 295 294 294 293 293 294 292 292 292 291 288 288 286 283 284 283 281 282 282 284 284 285 283 282 280 276 274 272 275 275 276 278 278 276 276 274 273
301 300 300 300 297 294 294 293 292 291 292 291 292 292 291 288 287 287 286 283 282 281 281 281 282 283 281 279 280 280 279 280 279 276 275 276 275 276 276 276 276 275 275
299 298 296 295 293 293 293 291 291 292 291 291 291 291 290 287 287 287 285 281 281 281 281 281 280 278 278 278 277 276 276 277 278 278 276 275 276 277 278 279 278 278 278
294 293 293 293 292 292 291 291 291 291 290 290 291 290 288 285 287 286 283 280 281 281 282 282 281 278 280 280 277 276 275 276 279 281 280 281 282 282 282 281 279 278 276
292 292 292 292 292 291 291 291 290 290 290 290 289 288 288 284 286 285 283 279 280 280 280 280 282 278 280 279 275 274 272 274 276 276 276 277 279 280 282 280 278 276 276
292 293 293 293 292 292 291 290 289 288 287 286 285 285 286 284 283 286 285 280 279 279 279 278 278 280 280 281 280 275 274 276 277 276 275 276 277 278 279 280 280 279 277
292 292 292 291 291 291 289 289 288 286 285 285 283 283 282 283 284 286 286 284 282 277 278 278 278 283 282 281 280 279 280 278 271 272 272 273 274 275 277 278 279 280 280
291 291 290 290 290 290 287 286 285 285 282 282 282 280 281 283 282 285 286 285 284 277 278 279 281 282 282 280 281 281 278 274 271 268 270 271 273 276 278 278 279 279 280
288 288 288 288 287 287 287 286 285 281 280 282 281 281 280 281 282 281 282 282 283 281 278 278 277 277 275 275 276 278 276 274 272 271 269 271 273 273 273 275 276 277 277
287 287 286 286 285 285 286 285 283 282 282 281 281 281 279 277 282 285 282 280 278 279 272 277 274 272 274 276 275 275 275 274 272 269 268 270 272 273 273 274 275 276 273
285 284 281 281 282 284 283 283 286 285 286 286 286 283 282 285 286 287 286 285 284 283 278 272 266 265 270 274 273 273 272 272 272 271 268 270 270 270 272 274 274 274 273
283 283 282 282 282 282 281 281 280 282 286 287 287 287 286 286 286 286 286 285 284 281 271 270 266 268 271 275 275 273 271 271 271 270 269 267 268 271 270 272 271 272 272
283 283 283 283 283 283 281 281 280 280 280 281 283 285 286 286 286 286 285 284 280 281 275 273 272 272 274 275 275 274 271 269 268 268 266 263 263 267 267 269 271 265 271
284 283 284 284 284 285 284 282 281 281 280 281 281 280 280 285 286 285 285 282 278 277 277 277 276 275 275 276 275 273 269 266 265 263 263 264 265 266 265 267 270 267 267
287 283 282 284 284 284 284 283 282 281 281 281 280 281 279 277 282 283 283 282 280 278 277 277 278 277 277 277 278 276 271 267 266 264 263 265 261 262 263 263 266 265 269
285 285 284 285 285 284 284 284 284 282 280 280 280 281 281 281 282 281 280 281 280 279 279 278 278 278 278 276 275 276 276 272 271 268 267 265 259 262 264 264 266 268 270
281 280 280 280 282 282 284 284 283 282 280 278 281 279 278 279 282 283 283 282 282 281 281 281 280 280 280 279 279 276 276 276 274 271 268 266 265 263 263 265 263 264 266
277 277 278 279 280 280 280 281 283 284 280 276 277 278 278 280 282 283 284 284 284 284 284 283 282 282 281 280 281 280 279 277 276 274 272 267 266 263 261 263 263 263 263
277 277 276 276 278 279 279 281 283 281 279 277 280 283 281 280 281 280 283 284 284 284 284 284 284 283 283 282 282 282 281 280 278 276 273 270 268 265 261 263 263 261 262
273 273 273 274 274 274 275 279 282 282 280 279 274 274 277 276 276 277 277 277 278 278 278 280 284 284 284 284 283 282 281 281 280 276 274 271 268 265 262 263 261 263 261
270 270 268 269 270 271 272 273 273 275 275 275 274 274 272 269 269 270 272 273 273 273 274 275 277 278 282 283 284 283 282 280 279 276 275 273 270 265 263 262 261 262 263

GFSGL_sfc_thetae_036.txt.gz
Theta_e
300 299 298 298 299 299 299 299 298 298 297 297 297 294 293 292 292 290 290 289 289 288 288 289 288 290 288 287 284 283 281 280 276 277 278 279 278 278 281 281 283 282 283
301 299 297 298 301 300 299 299 298 298 298 296 295 293 292 291 291 290 289 290 289 288 287 287 287 289 284 282 280 279 278 278 277 275 276 276 277 278 279 279 282 284 282
301 298 296 297 298 298 298 299 300 297 295 294 293 292 292 291 291 290 290 289 289 289 288 286 285 285 281 280 279 278 278 280 277 276 275 276 276 278 278 279 280 280 283
299 298 298 298 299 298 297 298 296 295 293 294 293 292 292 292 292 291 290 289 288 287 286 285 284 283 281 279 279 277 277 276 276 275 276 276 276 278 277 277 278 279 278
300 299 300 299 299 299 296 296 295 294 294 294 292 292 293 293 292 291 289 287 285 285 285 284 283 283 286 282 279 277 276 275 275 275 275 275 275 275 276 277 277 276 277
299 300 301 299 296 296 295 294 292 294 293 292 292 292 292 292 290 290 288 285 285 283 282 282 282 284 285 285 284 282 279 275 274 271 274 273 274 275 276 275 275 274 274
300 300 299 298 296 294 294 293 292 291 291 291 291 291 290 290 289 289 287 283 282 282 281 281 281 282 282 280 281 280 279 279 278 275 273 273 273 274 275 275 275 275 276
299 298 297 294 293 293 291 291 292 291 291 290 289 289 289 289 288 288 286 282 281 281 281 281 280 279 279 278 277 276 276 276 277 277 275 275 275 277 278 279 279 279 279
292 292 293 292 291 292 291 291 291 290 289 288 289 289 288 287 288 287 284 281 280 281 282 282 281 279 280 282 277 276 275 276 278 280 280 281 281 281 281 280 276 276 274
290 291 291 292 292 291 291 290 289 289 288 288 287 287 288 285 287 287 285 281 280 281 281 281 283 280 281 281 276 275 272 274 275 276 276 277 278 278 280 279 277 275 275
293 293 293 293 293 291 289 288 287 286 286 285 284 284 284 284 283 287 287 281 280 280 280 279 279 282 281 281 281 275 273 276 276 276 276 275 276 277 277 278 278 277 276
293 293 292 290 290 289 287 286 286 284 282 282 278 281 281 283 285 286 287 286 282 278 279 280 279 282 282 282 281 280 281 278 272 271 272 273 273 274 276 277 278 278 279
291 289 288 288 288 288 285 283 282 282 279 281 281 279 280 282 281 286 286 286 285 280 280 280 281 282 283 281 282 282 278 275 272 267 271 271 272 274 276 276 277 277 279
287 286 286 286 286 285 284 284 282 279 278 281 280 280 280 280 280 280 282 283 285 283 279 281 277 277 274 276 275 278 276 274 273 272 270 270 272 272 272 274 273 274 275
286 286 285 284 283 283 284 284 283 282 282 281 280 280 277 278 280 284 283 281 282 282 278 275 275 274 276 275 275 275 275 275 273 270 268 268 270 272 271 273 273 273 271
284 283 281 280 281 282 282 283 285 285 285 286 286 281 282 284 285 286 286 286 285 283 278 276 275 274 274 274 272 272 272 272 272 272 268 269 269 268 269 272 273 270 270
283 283 281 281 281 281 282 281 281 285 286 286 286 287 286 286 286 286 287 287 286 284 279 274 275 271 271 273 273 273 272 273 271 272 270 269 267 269 268 270 270 270 270
283 282 282 282 282 282 282 282 283 282 283 283 283 284 285 286 286 286 286 286 283 283 278 276 274 272 272 273 273 273 273 269 270 269 267 264 261 265 266 267 269 265 268
285 285 285 285 284 284 284 284 285 284 284 284 283 279 280 284 285 286 286 283 282 279 280 278 276 275 274 274 274 271 269 269 269 266 266 264 259 265 264 265 264 266 266
281 280 279 279 280 280 281 281 282 283 284 283 282 282 279 275 275 282 283 283 283 280 280 279 278 278 276 275 274 273 271 271 271 268 265 261 259 262 262 262 261 265 270
276 277 276 277 277 277 278 278 279 280 281 283 284 282 278 279 281 275 277 279 282 281 280 279 278 278 279 277 276 275 274 274 274 273 271 267 261 261 264 262 261 265 268
275 276 277 276 276 276 276 278 278 278 279 279 281 281 281 277 279 278 281 282 281 282 283 282 279 279 279 279 278 277 275 274 273 273 271 268 266 265 263 262 261 261 264
274 272 272 273 273 273 273 274 273 276 279 280 282 281 277 277 278 279 281 282 281 283 282 282 281 280 281 281 281 280 278 276 277 277 274 270 267 265 261 261 261 261 261
270 270 268 268 268 269 269 270 271 271 271 274 278 277 276 276 275 274 274 274 275 275 276 276 279 282 282 282 281 281 281 280 279 277 276 273 270 267 262 261 262 260 260
266 266 264 265 265 266 266 267 267 268 268 269 269 270 271 271 271 270 268 268 270 271 273 274 275 276 277 277 282 282 282 281 281 279 278 275 273 270 267 264 261 261 259
265 265 264 263 264 264 264 264 264 265 266 267 267 267 268 268 268 268 268 268 268 268 270 271 272 273 273 274 275 279 282 281 281 279 277 276 273 270 268 267 263 260 262

GFSGL_sfc_thetae_042.txt.gz
Theta_e
311 307 306 304 305 306 304 304 301 299 296 295 296 296 295 294 293 292 291 290 290 289 289 287 287 288 287 287 287 285 284 283 280 280 280 280 279 279 280 280 281 281 282
306 302 304 305 305 303 302 299 297 295 296 296 296 295 295 293 293 291 289 291 289 287 287 287 287 289 286 286 284 282 280 280 278 276 277 278 278 279 279 278 280 282 282
303 301 302 301 302 300 298 298 297 297 296 296 296 295 295 295 291 290 291 289 288 288 287 286 286 286 283 282 281 280 279 280 278 277 276 278 278 278 278 279 279 280 281
302 302 301 299 298 299 299 298 298 297 295 295 295 295 294 292 292 292 290 289 287 287 286 286 286 284 283 282 281 279 279 277 277 276 276 276 276 277 277 276 276 278 278
301 300 297 298 297 298 297 295 295 294 294 294 294 295 295 293 292 292 291 288 286 285 286 285 284 284 286 283 280 279 277 276 276 276 275 275 275 274 274 276 275 276 277
298 296 297 298 297 296 293 292 293 294 295 295 295 294 293 294 292 291 290 286 286 285 284 283 283 286 286 288 287 284 280 277 276 274 274 273 273 274 275 274 274 274 273
297 298 298 296 294 294 294 293 293 293 294 294 293 293 291 289 289 290 290 286 284 283 282 282 282 283 284 282 285 286 284 282 278 276 274 274 273 275 275 275 275 276 276
296 295 296 294 292 293 293 293 293 293 293 292 290 288 287 287 288 289 288 285 283 282 282 281 281 281 282 281 280 279 279 278 279 278 276 275 276 277 277 277 277 277 277
290 291 292 293 293 293 293 293 294 292 290 289 287 286 285 285 287 288 287 283 281 281 281 281 281 282 283 284 279 278 277 278 280 282 281 280 281 281 281 277 275 274 272
291 292 294 294 294 294 293 292 290 289 287 286 285 285 285 284 286 288 287 281 280 281 280 282 285 282 283 284 280 277 275 277 277 276 276 278 279 278 280 278 276 273 273
294 295 295 295 294 293 291 288 287 285 284 283 283 283 283 283 283 287 288 282 281 281 281 281 282 284 285 284 284 278 277 278 277 276 276 277 277 277 277 278 278 276 274
293 292 291 290 289 288 286 285 284 283 281 282 279 281 281 282 284 285 287 287 285 281 281 282 282 284 285 285 283 282 281 278 276 275 274 274 275 275 276 277 278 278 278
287 287 286 285 285 285 283 283 282 281 278 280 281 281 281 282 281 285 286 286 286 283 282 283 284 284 285 284 284 283 281 279 276 274 274 274 275 276 277 277 278 277 277
284 284 284 283 283 283 282 282 281 279 279 281 281 281 281 282 280 281 281 280 283 284 282 283 282 281 281 282 281 282 281 279 276 275 274 274 273 273 274 275 274 274 274
283 283 282 282 281 282 282 281 281 281 281 281 282 281 281 282 284 284 283 281 280 281 279 281 281 280 279 279 279 279 278 277 275 274 272 272 272 272 273 274 273 273 271
282 282 280 280 279 281 281 281 284 284 285 285 286 283 284 286 286 287 286 286 286 285 281 281 279 277 278 278 278 277 277 276 276 274 272 272 272 272 272 272 273 272 270
280 280 278 278 277 277 277 276 275 278 281 281 281 282 283 283 284 285 286 286 286 285 282 281 280 280 279 278 278 277 276 276 276 275 274 272 271 271 270 271 271 271 270
277 277 275 275 274 275 273 274 274 274 273 274 278 279 280 282 282 283 284 284 283 284 283 282 282 281 280 279 278 277 276 275 273 273 271 270 269 270 270 270 271 268 269
275 275 274 273 273 273 273 273 274 274 272 271 272 273 274 275 278 281 282 281 281 282 282 281 282 282 281 280 279 278 277 275 272 270 271 269 268 270 269 270 269 266 266
274 274 272 273 272 271 271 270 271 271 271 270 269 269 271 271 270 271 277 279 280 281 282 281 281 281 280 279 278 277 275 274 272 270 270 269 268 269 270 269 267 267 269
272 272 269 270 269 269 268 268 268 268 267 267 268 268 269 269 269 270 270 270 274 280 281 281 281 281 281 279 279 277 275 274 274 273 272 270 269 270 270 270 268 268 269
269 268 268 267 267 266 265 266 265 265 265 265 265 267 267 267 268 268 268 268 269 269 271 273 275 278 280 279 279 278 276 276 275 275 273 272 271 271 271 270 267 267 268
267 263 264 265 264 262 261 262 262 261 261 262 263 264 264 265 266 266 266 267 267 267 268 269 270 272 273 275 278 280 279 278 278 278 276 273 272 271 271 270 268 266 266
264 260 262 260 258 259 254 254 256 258 259 259 259 260 262 263 263 264 264 266 266 266 266 267 267 268 268 270 273 275 276 280 280 279 278 276 274 273 271 271 269 267 267
257 254 255 256 254 252 251 254 253 253 256 257 257 258 260 260 262 261 262 264 264 264 265 265 266 265 266 266 268 272 274 275 275 279 279 278 275 273 272 272 270 269 266
259 257 256 254 253 251 250 251 252 251 254 255 256 257 258 258 260 259 260 261 262 262 264 265 264 264 264 266 269 270 270 272 274 275 279 278 275 273 272 272 270 270 268

GFSGL_sfc_thetae_045.txt.gz
Theta_e
323 323 322 321 319 318 314 313 308 305 303 301 301 301 300 297 297 296 296 298 297 298 297 297 296 297 296 295 295 295 293 291 287 289 289 289 288 287 287 287 286 285 286
322 319 319 317 314 314 311 310 308 304 302 301 300 299 297 297 297 296 296 294 296 296 296 296 295 295 295 295 294 293 292 292 288 286 288 286 286 287 286 285 284 284 285
316 315 315 313 311 310 309 307 304 301 301 299 298 296 296 297 298 296 297 297 296 296 296 295 295 295 294 294 293 292 291 289 288 285 285 286 285 286 284 284 283 284 284
311 309 309 308 308 307 305 304 303 301 299 299 298 298 297 295 297 297 296 295 295 295 295 295 295 294 294 294 292 291 289 288 287 285 284 284 284 285 283 281 281 283 282
309 308 306 304 304 304 302 299 299 297 296 297 296 297 297 296 295 295 296 296 297 295 295 294 294 294 293 292 290 290 288 286 285 284 283 283 282 282 280 281 280 281 282
306 304 302 302 299 296 295 294 295 295 297 298 296 295 295 295 293 293 293 296 294 293 293 294 293 290 290 288 288 287 287 286 285 284 283 282 282 282 281 280 280 279 277
302 301 300 297 295 295 295 295 296 295 297 296 296 296 294 295 292 291 290 293 293 293 293 293 292 289 288 289 287 287 286 284 283 286 283 283 282 282 280 280 280 279 279
300 299 297 295 294 295 295 295 295 295 295 295 295 295 296 294 289 289 288 292 292 292 292 292 292 291 288 287 287 287 287 287 286 284 284 284 284 282 281 281 281 281 281
295 295 296 296 295 295 295 294 295 295 295 296 295 294 293 292 288 288 289 292 291 290 291 291 290 289 287 286 287 285 285 285 285 283 283 283 281 281 282 282 280 279 277
295 296 297 297 296 296 295 293 293 294 293 293 291 292 290 291 289 288 288 291 289 290 291 290 286 287 286 286 287 285 283 284 284 283 283 283 282 283 281 282 281 278 278
297 298 297 295 294 293 292 292 292 292 291 291 289 291 291 290 290 288 288 289 289 289 289 289 289 285 285 285 285 286 285 286 283 283 282 282 281 282 282 283 283 281 279
294 291 291 291 291 291 291 290 290 290 289 289 288 288 290 290 288 288 287 287 288 288 288 289 290 286 286 285 286 285 284 283 284 283 282 280 281 281 283 283 283 282 282
290 289 289 289 288 288 288 288 288 288 288 287 287 287 288 289 290 287 286 286 286 287 290 289 287 286 285 285 285 285 284 283 283 281 281 281 282 283 283 282 282 282 281
288 288 288 288 287 288 288 287 287 286 285 285 285 284 285 285 287 288 288 289 288 287 286 287 286 285 285 286 285 285 285 285 283 282 282 283 283 282 281 282 280 280 279
286 285 285 284 284 283 283 283 282 283 283 282 282 281 281 281 282 283 283 283 285 286 286 286 286 284 283 284 283 284 285 284 282 283 282 281 281 281 281 282 280 279 277
282 281 280 281 280 280 280 280 280 280 280 280 279 280 280 280 279 279 280 281 283 284 283 283 284 285 283 283 283 282 282 282 282 282 282 281 280 280 281 281 280 279 277
279 279 279 279 279 278 278 277 276 279 278 278 277 277 277 277 277 278 278 279 282 282 282 282 284 285 284 282 282 281 281 283 283 281 281 281 281 280 279 280 279 278 277
278 277 277 278 278 277 276 276 276 275 275 275 276 275 275 275 276 277 277 277 280 282 282 284 284 285 285 283 282 282 282 282 281 281 281 281 281 280 280 279 279 278 277
277 276 276 276 276 274 275 274 274 274 273 273 274 274 273 273 274 274 275 274 273 273 275 280 284 285 285 284 284 283 282 282 282 281 281 280 280 279 279 280 279 276 275
276 273 273 274 273 273 272 272 271 271 271 270 271 270 270 270 270 271 272 272 271 271 273 273 273 283 285 284 284 283 282 282 281 280 280 280 280 279 279 279 279 278 277
274 273 270 272 271 270 270 270 269 269 268 268 269 269 266 267 268 269 269 270 270 270 270 271 272 273 276 284 284 283 282 282 281 280 280 279 279 277 279 280 279 278 277
270 270 270 269 269 268 267 267 267 267 266 266 267 267 265 268 267 267 268 268 268 269 269 269 269 271 272 272 276 281 281 281 280 280 280 279 278 278 279 278 278 278 277
269 267 268 268 267 265 265 265 265 265 264 265 265 264 265 265 265 265 267 266 267 268 268 268 268 268 270 270 272 276 278 280 282 282 280 279 278 279 278 278 277 277 276
267 266 266 265 264 264 263 263 263 262 262 263 263 263 263 264 264 264 265 265 265 266 266 267 267 267 267 268 270 273 276 275 277 281 281 280 279 279 279 278 278 277 276
266 265 264 264 263 262 261 261 261 261 261 261 261 262 262 262 263 263 264 263 263 263 263 265 266 266 266 266 267 269 270 269 273 276 279 281 280 279 278 278 278 277 276
266 264 264 263 263 261 261 260 260 260 259 260 260 260 261 261 261 262 262 262 262 261 262 264 264 264 265 266 267 268 266 267 270 272 276 279 280 279 278 277 277 276 275

GFSGL_sfc_thetae_048.txt.gz
Theta_e
330 330 329 327 327 326 324 321 321 319 315 308 309 308 304 301 300 297 298 299 298 298 299 300 300 301 299 299 299 298 296 295 291 293 294 295 294 293 292 293 292 291 289
331 330 329 328 325 323 322 321 319 312 309 308 305 301 302 298 298 297 297 296 297 297 299 299 299 298 299 299 298 296 295 296 293 290 293 292 293 293 292 290 289 288 289
329 327 325 321 319 316 314 311 309 307 305 302 301 302 299 298 296 297 298 298 297 299 299 298 298 298 298 298 297 296 296 295 293 291 290 292 292 292 290 290 289 288 288
322 320 316 315 313 311 310 307 305 305 302 301 300 298 297 297 298 298 298 298 298 298 298 298 298 298 297 297 296 295 294 293 292 291 290 289 290 291 289 287 286 287 286
318 315 312 310 309 309 311 309 306 303 301 300 299 296 298 298 298 298 297 296 296 297 299 299 299 298 296 296 296 296 294 292 291 290 288 288 288 288 286 287 284 285 286
315 312 309 309 308 306 303 302 302 299 300 298 299 299 298 298 293 292 294 296 297 298 296 297 297 296 295 291 291 290 292 293 291 289 287 286 287 287 287 286 284 282 281
310 307 305 303 301 301 301 300 299 301 300 299 298 298 297 297 293 293 291 297 296 296 296 296 295 295 294 296 290 288 287 287 284 289 287 288 287 288 287 285 283 283 283
306 304 302 302 301 301 301 300 300 299 298 297 296 297 298 297 292 290 289 294 296 296 296 295 295 295 295 295 294 293 292 292 290 289 289 289 289 289 287 285 284 284 285
302 302 302 302 301 301 299 299 299 297 295 297 298 298 298 298 290 289 289 295 294 295 295 295 295 294 292 290 291 290 291 291 290 288 287 286 284 283 283 284 282 282 281
301 301 302 302 301 300 298 295 294 296 298 297 296 296 293 295 292 290 290 293 292 293 294 294 290 291 289 287 290 289 288 289 289 289 287 285 284 286 283 284 284 281 281
301 301 300 299 296 294 293 296 297 297 295 295 293 294 294 293 294 290 289 291 291 292 292 292 293 288 287 286 286 289 289 290 288 288 288 287 287 287 286 285 285 284 282
298 295 293 294 294 294 294 294 294 294 292 292 293 292 294 294 290 290 288 288 288 289 289 292 293 289 288 287 287 287 286 286 288 287 286 286 285 285 285 286 286 286 286
295 294 293 293 293 293 293 293 293 292 291 290 289 289 288 289 289 286 285 284 284 285 287 289 287 287 287 286 286 285 285 287 286 285 285 285 285 286 286 285 286 286 285
292 292 292 291 291 291 291 289 288 287 286 285 284 284 284 284 285 284 282 283 283 284 285 288 286 285 285 286 287 288 288 288 286 286 285 286 287 286 284 284 283 283 282
290 289 289 288 286 286 285 285 284 284 282 282 282 282 281 281 281 279 280 281 282 281 281 284 285 285 286 286 287 287 287 287 285 286 286 285 285 284 283 284 283 282 281
286 285 284 285 285 284 284 284 280 279 279 279 278 278 280 279 278 277 278 278 279 279 282 282 283 285 284 285 286 286 286 285 286 286 286 285 284 283 283 283 283 281 281
283 283 283 283 283 282 282 282 281 282 279 278 277 277 276 276 276 276 277 277 279 279 280 280 282 284 285 285 286 286 285 285 285 284 284 285 284 284 283 282 282 280 280
281 278 282 282 282 281 281 280 280 279 278 279 278 276 275 275 274 275 276 277 277 278 278 277 278 279 280 281 287 287 286 285 283 283 284 284 284 283 282 281 281 281 280
281 280 281 281 279 278 279 279 278 277 277 277 277 277 276 273 274 275 275 276 274 274 275 275 275 276 278 277 282 286 285 285 284 284 284 284 284 283 282 282 281 281 280
278 275 276 279 278 277 277 276 276 276 275 275 275 275 274 272 274 274 275 274 273 273 273 273 273 274 275 276 276 281 285 285 284 284 284 284 284 283 282 281 281 281 279
279 277 273 277 276 275 275 275 274 274 273 273 273 273 268 269 272 273 272 273 272 271 272 272 272 273 274 274 274 276 278 284 285 284 283 284 283 282 282 282 281 281 280
275 275 275 274 275 274 272 273 273 272 272 271 272 272 269 271 271 271 271 271 271 271 271 271 271 272 272 272 271 272 274 278 283 283 283 283 283 283 282 281 281 281 279
273 273 273 273 272 270 272 271 271 271 270 270 270 270 270 270 269 270 270 270 270 270 270 270 269 270 271 271 271 271 272 274 275 277 281 282 282 282 282 281 280 280 279
272 272 271 271 270 270 270 269 270 268 268 269 269 269 269 268 268 268 268 269 268 269 269 268 268 268 269 269 269 270 271 273 272 274 277 280 282 282 282 281 281 280 280
272 271 271 270 270 269 268 268 268 268 268 267 267 267 268 268 267 268 268 267 267 267 267 266 267 268 267 267 268 269 270 269 270 270 274 277 282 282 282 281 281 281 280
271 270 270 269 269 268 267 266 266 266 266 266 266 266 266 266 266 266 266 266 265 265 265 266 267 267 266 267 269 269 268 268 269 270 271 275 279 282 282 281 281 281 280

GFSGL_sfc_thetae_054.txt.gz
Theta_e
327 327 326 324 325 327 328 325 326 321 319 317 315 314 311 306 305 301 299 298 297 298 297 297 297 298 298 299 299 296 293 292 289 290 291 291 291 291 292 292 292 290 290
329 328 328 329 328 326 324 322 320 318 317 316 312 307 305 303 300 298 298 298 297 296 297 297 297 299 298 299 297 295 294 293 291 289 290 289 290 291 291 289 291 292 288
327 327 327 325 320 317 315 313 312 310 307 306 304 303 300 300 298 298 297 297 296 296 297 297 297 297 297 297 296 295 294 295 293 289 289 290 290 289 288 289 288 288 291
323 322 320 317 314 312 310 308 306 304 303 302 302 300 299 298 298 298 297 296 296 297 297 297 297 297 296 296 296 296 295 293 293 291 290 289 288 288 287 285 284 286 285
319 317 314 313 312 310 308 305 304 303 302 300 299 298 298 297 298 297 297 296 296 297 297 298 298 297 297 296 297 295 291 289 289 288 288 287 286 285 284 285 285 284 284
316 314 314 313 312 310 307 305 303 302 300 300 299 298 297 299 294 294 296 296 296 295 295 296 297 296 296 294 294 293 291 289 288 287 288 288 286 287 285 284 283 281 279
314 314 313 310 307 306 305 304 302 301 301 301 299 299 298 297 293 293 292 295 295 294 294 294 294 295 292 293 292 290 289 290 287 289 287 287 287 287 285 283 283 282 282
310 308 307 306 304 304 303 302 301 300 300 300 299 297 297 298 293 293 291 292 291 291 291 292 291 291 292 291 289 288 289 290 290 289 287 288 288 287 285 286 284 283 281
306 305 305 304 303 302 301 300 300 299 297 298 299 297 296 296 293 291 289 290 290 289 291 291 290 289 290 290 287 286 287 288 292 291 291 291 290 290 287 283 280 279 275
305 304 305 304 303 299 299 298 297 298 299 298 296 295 291 291 289 288 289 286 284 283 285 286 287 287 287 286 284 283 283 285 287 288 288 287 288 285 285 284 282 281 280
305 304 303 301 300 299 297 297 297 296 295 291 290 291 292 288 286 285 284 281 280 280 280 281 281 284 284 284 283 280 280 283 284 285 286 286 286 285 285 283 283 283 281
302 301 300 299 298 298 297 294 294 293 291 289 288 287 288 286 284 284 283 282 282 279 279 280 281 282 283 283 282 283 284 283 284 283 283 284 285 285 287 286 285 283 283
299 297 297 297 296 295 293 292 291 291 287 284 284 283 283 283 283 282 281 281 281 279 279 280 281 281 282 282 284 284 282 281 280 280 281 282 284 286 287 286 285 285 283
297 295 294 292 292 292 290 288 287 284 283 283 282 281 281 281 279 278 278 277 279 278 278 277 277 279 280 280 281 282 282 283 282 282 282 284 285 286 285 286 284 283 282
294 293 291 290 288 286 283 284 282 280 280 281 279 280 276 276 276 277 276 276 276 277 275 276 277 278 277 277 277 277 278 279 279 279 280 283 284 285 284 285 284 283 280
290 288 286 286 285 285 283 281 282 280 280 279 279 278 278 278 277 277 277 278 278 278 275 274 273 273 274 274 274 274 275 275 276 277 276 280 284 284 284 284 283 281 280
285 285 284 285 284 283 283 283 278 279 280 279 279 278 277 275 276 276 277 277 278 278 272 273 272 272 272 273 273 273 273 274 274 275 275 279 284 284 283 282 283 281 280
282 284 284 283 283 283 282 281 281 280 278 278 279 278 277 276 276 276 277 277 274 275 274 272 271 272 272 272 272 272 272 273 272 272 274 280 284 282 281 281 282 280 280
282 282 282 280 279 279 280 280 279 279 279 278 278 278 276 275 275 276 278 272 270 271 272 272 271 271 271 271 270 271 271 271 271 271 274 277 282 282 280 278 281 280 280
278 278 280 279 278 279 279 278 278 277 277 277 276 276 274 271 268 268 270 268 268 269 270 270 271 270 270 269 269 270 270 269 270 270 272 272 273 281 278 276 278 281 280
277 276 276 278 278 277 277 277 276 276 275 275 274 270 268 269 268 270 270 268 269 268 268 270 269 268 269 268 268 268 268 267 269 269 270 270 270 272 280 278 282 281 281
277 277 277 276 276 275 274 274 275 274 274 273 273 273 270 269 270 269 269 268 266 267 269 268 268 268 268 268 266 266 266 266 267 268 268 268 269 270 273 278 281 281 280
276 275 275 275 274 272 273 274 273 273 272 272 271 271 271 269 269 269 268 265 267 266 266 267 266 267 267 266 266 268 266 266 266 268 268 267 267 268 270 272 280 280 280
274 274 273 273 273 271 272 272 271 271 271 271 270 270 270 269 267 265 266 266 264 264 264 265 266 264 265 266 267 267 267 266 267 268 267 266 265 268 269 271 274 280 280
274 273 273 273 272 272 271 271 271 270 270 269 269 269 268 268 267 266 265 265 264 263 265 263 264 265 265 264 264 265 266 268 266 265 266 266 266 267 268 271 275 280 280
273 272 271 271 271 271 270 269 269 269 268 268 267 265 266 266 266 264 265 264 264 263 262 263 263 263 263 264 266 267 267 266 265 264 265 266 266 267 269 271 273 278 279

GFSGL_sfc_thetae_057.txt.gz
Theta_e
323 323 323 324 324 322 319 318 320 316 316 316 315 313 311 307 305 303 301 300 299 298 298 298 298 299 298 298 299 298 297 293 291 288 290 290 288 289 291 291 291 291 291
324 323 323 322 322 321 321 320 320 318 317 315 313 311 306 304 302 300 299 298 298 297 297 297 297 299 298 298 298 297 296 295 291 288 288 289 289 290 289 288 291 292 289
326 324 323 323 322 320 316 314 313 311 309 308 306 304 302 301 299 299 298 298 297 297 297 296 297 297 296 296 296 295 295 296 293 290 291 288 290 288 288 287 287 287 289
324 321 318 316 314 311 309 308 307 306 304 303 303 301 300 299 298 298 297 296 296 296 297 297 297 297 296 296 296 295 295 294 294 292 292 292 288 291 289 289 287 286 287
317 315 312 311 310 308 306 304 304 303 302 301 299 299 298 298 298 297 297 296 296 296 296 297 297 297 296 295 296 292 291 290 287 286 287 285 283 284 284 287 285 284 284
312 311 311 310 307 305 304 302 301 300 300 299 298 297 296 297 293 294 295 296 296 296 294 295 293 295 294 293 293 293 293 291 288 286 287 286 286 283 284 283 282 283 282
311 311 311 309 306 304 303 301 300 298 297 295 295 295 294 294 293 293 293 296 294 292 290 291 292 294 290 288 288 288 288 289 286 288 286 286 286 286 284 282 282 282 283
309 307 306 304 303 302 299 298 297 296 295 295 297 298 297 296 292 292 290 290 289 288 288 287 286 285 287 286 284 283 284 286 287 288 287 288 288 288 287 288 287 286 283
304 303 303 302 300 299 298 298 297 297 297 297 297 294 293 294 291 291 289 286 286 284 285 285 285 284 285 285 281 279 278 279 283 286 287 288 288 288 289 288 283 280 279
303 302 302 301 299 297 297 297 297 295 297 296 294 291 289 286 287 288 285 281 279 279 281 282 283 283 284 283 280 278 278 278 279 280 281 283 285 285 287 287 287 282 281
303 302 300 298 297 296 295 294 294 293 290 287 287 287 285 284 284 284 283 279 278 279 278 278 278 282 282 282 283 280 280 281 281 281 281 282 282 283 285 285 285 284 283
300 298 297 297 297 296 293 293 291 289 286 284 284 282 281 281 283 283 282 281 280 278 278 278 278 280 281 282 281 283 282 281 281 280 280 280 280 281 283 286 284 285 286
297 296 296 296 295 294 289 288 288 287 283 281 282 281 279 279 278 279 279 279 279 277 278 278 279 280 280 280 280 280 278 277 277 277 277 278 280 282 284 285 287 285 283
295 294 292 290 289 287 287 286 283 280 280 281 280 279 279 277 276 276 276 276 277 277 277 276 276 278 277 276 276 277 276 275 275 274 274 276 277 278 282 283 284 284 282
292 290 288 285 282 281 282 281 279 279 281 279 279 279 276 275 276 277 277 276 274 277 274 273 275 274 274 274 274 274 274 274 273 273 272 273 275 275 277 284 285 284 281
287 285 282 282 281 281 280 279 281 280 281 281 280 278 278 278 277 277 277 277 278 279 274 270 265 264 269 272 271 271 271 271 272 272 272 272 272 273 274 283 283 282 281
283 283 282 282 282 281 280 278 276 279 280 280 279 279 279 277 276 277 277 277 278 277 270 270 264 264 266 271 271 270 269 270 272 270 270 270 272 272 276 282 282 282 280
283 282 281 281 280 280 280 280 279 277 276 277 279 278 278 277 276 277 277 277 273 274 273 270 267 267 269 270 269 269 268 269 269 269 269 269 271 271 272 282 281 280 279
281 280 278 278 279 279 279 279 279 278 278 277 278 277 276 275 275 275 276 270 268 269 271 270 268 268 267 268 264 263 264 266 267 266 267 268 269 269 269 278 280 278 276
279 279 279 279 278 278 278 277 277 277 277 276 275 274 273 271 265 263 266 263 263 266 266 268 269 268 264 264 261 261 264 265 265 265 266 267 268 268 268 270 276 278 280
276 277 277 278 276 276 276 276 275 275 274 274 272 270 269 269 267 267 269 265 265 266 262 265 264 259 261 261 267 263 263 264 264 265 265 265 267 266 267 268 271 276 278
277 277 276 275 276 274 273 274 274 273 273 272 271 271 269 266 268 269 267 263 261 262 263 262 260 261 262 265 263 262 263 264 264 264 263 264 266 266 266 267 269 270 279
275 274 274 274 273 272 272 273 272 271 270 269 269 269 268 266 267 266 263 260 260 261 259 259 255 261 261 259 259 264 264 263 264 263 263 264 264 265 265 266 267 269 273
274 273 273 272 272 271 270 269 269 270 269 268 266 266 266 265 262 261 260 259 257 255 253 255 258 260 261 263 263 263 264 265 265 265 262 262 262 264 264 265 266 268 271
272 271 271 270 269 267 267 267 266 266 265 264 263 264 264 261 262 258 255 255 256 253 257 256 256 259 259 259 261 262 264 266 266 266 265 264 263 264 265 265 266 269 270
271 270 269 269 268 266 264 262 262 261 261 262 261 258 257 259 258 253 255 255 258 256 255 256 258 258 259 261 263 265 265 266 266 266 266 265 263 264 265 265 266 267 270

GFSGL_sfc_thetae_060.txt.gz
Theta_e
321 321 320 321 322 321 321 319 320 318 315 313 315 316 315 312 309 305 303 302 301 299 299 299 299 300 299 298 298 299 298 296 293 295 292 290 288 289 290 292 293 292 292
321 321 321 321 322 321 321 320 319 316 315 314 314 311 309 306 304 302 301 301 299 298 298 298 298 299 297 298 297 296 296 296 294 291 292 290 289 292 293 291 292 292 291
323 322 322 322 322 323 321 322 322 315 313 312 312 310 305 303 301 300 299 299 299 298 298 297 297 297 296 296 296 295 295 296 295 292 292 294 292 289 288 289 290 290 291
323 322 321 321 321 320 317 314 313 312 308 307 306 304 302 300 300 299 299 298 297 297 297 297 297 297 296 295 295 294 295 293 291 290 290 289 288 289 288 289 289 286 288
322 322 320 319 315 312 310 308 306 305 304 302 302 301 299 299 299 298 298 296 296 295 296 297 297 297 296 294 294 294 288 288 288 287 287 286 284 282 284 286 285 287 285
320 317 313 311 309 307 305 305 303 302 302 300 299 299 298 298 293 294 295 295 295 295 295 295 294 293 291 289 289 289 287 285 286 287 287 286 285 284 284 286 286 281 282
313 312 310 308 306 304 304 302 300 299 299 299 297 297 296 295 292 293 292 295 295 294 291 288 288 288 286 285 285 285 284 286 283 283 283 283 284 286 287 286 285 283 284
311 309 308 306 303 302 301 300 300 299 296 296 295 294 293 293 292 291 290 290 287 286 285 284 283 283 283 282 280 278 278 279 279 280 279 280 281 283 284 284 284 285 287
307 306 306 304 302 301 299 297 295 294 294 294 295 294 292 291 291 288 288 284 283 282 283 283 281 280 283 283 280 278 278 280 283 284 285 285 285 285 285 283 281 281 281
304 303 303 303 300 298 296 295 295 295 296 296 293 291 290 289 288 288 285 280 279 279 280 280 282 281 282 282 279 278 278 279 280 280 281 282 283 283 284 283 281 280 280
303 301 299 298 297 297 296 296 295 292 290 287 285 284 284 284 284 285 283 279 279 279 278 278 278 280 281 282 282 279 279 278 278 278 279 280 279 280 281 282 283 283 281
300 298 297 297 297 296 294 294 290 288 285 283 281 279 280 281 283 283 282 281 280 278 278 278 278 280 281 281 280 280 279 277 275 275 275 275 275 276 277 278 279 283 285
297 296 295 295 294 293 291 288 287 286 284 282 280 278 277 278 278 280 280 279 278 277 278 278 279 279 280 279 278 278 277 274 272 271 272 273 273 274 276 277 278 282 285
294 293 293 290 286 286 285 285 284 281 282 281 280 278 277 276 276 277 277 276 278 277 277 277 276 278 277 276 276 276 275 274 272 271 271 272 273 273 273 275 274 276 282
292 287 285 284 283 280 279 279 280 280 281 281 279 279 276 274 276 277 277 277 275 278 275 274 275 274 273 273 274 273 273 272 271 271 270 270 270 271 271 274 273 275 278
285 283 282 281 280 278 278 278 282 281 282 282 281 279 278 278 278 278 277 278 278 278 275 272 269 268 270 271 270 270 270 269 270 270 269 268 269 269 270 271 272 275 281
283 282 282 281 280 279 279 279 277 279 281 280 280 280 278 278 277 278 277 277 278 276 272 270 265 265 267 270 270 269 268 268 269 268 267 266 268 269 268 269 270 272 280
281 281 281 280 280 280 280 279 279 278 277 277 279 278 278 277 276 277 277 277 273 274 273 271 269 269 269 268 268 267 267 266 265 266 265 265 266 266 267 267 269 268 279
280 279 280 279 279 279 279 279 279 278 278 278 278 277 277 276 275 275 275 272 271 270 270 270 269 269 267 267 263 261 257 258 261 260 262 264 263 264 266 267 267 268 272
279 279 279 278 278 278 278 277 277 277 276 275 275 273 273 272 269 268 269 267 268 269 268 269 269 267 264 263 260 258 257 257 260 262 262 261 262 263 265 266 266 266 269
278 278 277 277 276 276 276 275 275 274 274 274 272 271 271 271 269 269 270 268 268 268 266 267 265 261 261 261 263 257 258 256 262 263 263 262 262 262 265 266 266 267 269
276 276 276 276 275 273 273 274 273 273 273 272 271 271 271 269 270 270 269 267 264 266 266 264 262 261 261 262 260 254 258 260 258 261 262 262 262 263 263 264 265 266 267
275 274 274 274 273 272 272 272 271 271 270 270 270 270 269 268 267 267 266 263 265 262 261 259 255 257 258 255 256 259 261 261 262 263 262 262 263 262 262 262 264 265 265
273 272 272 272 271 271 270 269 269 270 269 268 267 267 266 264 263 263 261 259 259 254 252 251 254 257 258 255 255 257 261 263 263 264 264 264 263 263 262 262 264 265 265
271 271 270 269 268 268 268 268 266 266 265 264 263 263 263 260 261 256 254 253 252 251 253 254 254 256 257 257 257 258 259 262 264 264 264 264 263 263 262 262 264 265 266
269 269 268 268 267 266 265 264 262 261 260 260 258 255 255 255 255 251 251 253 253 253 254 254 255 256 257 259 260 262 262 261 262 263 263 264 263 263 263 263 264 265 265

GFSGL_sfc_thetae_063.txt.gz
Theta_e
313 313 311 311 312 315 317 319 320 318 318 317 317 318 318 317 315 313 309 306 304 301 301 301 299 300 300 300 299 299 298 297 293 295 295 293 292 292 291 290 292 291 292
316 316 316 316 319 319 320 321 322 320 318 318 315 315 314 313 311 308 305 303 301 300 300 300 299 300 298 298 298 296 296 297 294 292 293 292 290 289 290 290 293 294 290
319 319 319 320 320 321 321 322 321 320 317 315 314 312 311 307 306 304 303 301 300 300 299 299 298 298 296 297 296 295 295 296 294 292 292 292 289 290 289 289 288 290 291
319 319 319 320 320 321 321 321 321 319 316 314 314 310 306 303 302 301 300 299 298 298 298 298 298 297 296 296 295 294 294 292 289 288 290 289 288 288 286 285 287 288 287
318 319 319 320 321 321 320 318 312 314 313 311 305 303 302 302 301 300 299 298 297 296 297 297 297 297 296 294 294 292 291 289 289 288 287 287 286 287 282 284 284 286 287
319 319 320 320 318 317 315 309 306 305 306 303 302 300 300 301 294 294 296 297 296 295 295 295 292 290 289 288 288 287 285 281 279 279 279 279 280 281 281 281 282 282 281
318 318 319 316 312 309 307 306 303 303 303 301 299 299 300 297 292 293 293 296 295 294 292 290 287 286 284 282 282 282 281 282 281 279 277 278 277 279 279 279 279 279 279
317 315 312 310 308 307 305 302 301 301 299 298 298 299 297 295 291 291 290 291 288 286 285 284 282 281 282 281 279 279 279 280 280 280 278 278 278 279 279 280 280 281 282
311 309 308 306 304 303 301 300 300 297 297 297 297 295 294 292 289 289 288 285 282 281 281 281 280 280 282 282 280 279 279 280 283 283 283 284 284 285 284 282 280 279 278
309 308 307 305 303 300 299 299 297 297 297 295 293 293 292 290 289 288 285 281 279 279 279 280 282 280 281 282 279 279 278 278 277 277 278 279 281 281 282 281 280 277 277
305 304 302 302 300 298 296 296 296 294 290 287 285 287 286 286 285 286 284 280 279 278 278 278 278 280 281 282 281 279 278 277 276 275 276 276 277 277 277 277 278 276 275
301 299 298 298 297 297 295 292 289 287 285 283 282 281 282 282 283 283 282 281 281 279 278 278 278 280 281 281 278 278 278 276 274 273 273 273 273 273 274 275 275 276 278
297 297 296 296 294 293 290 288 287 285 283 282 281 279 278 278 278 281 281 280 279 278 278 278 279 279 279 278 277 277 276 274 272 270 271 271 272 273 274 274 275 276 276
295 294 292 288 288 288 288 287 286 284 283 281 279 277 276 276 276 277 277 278 278 278 278 278 277 278 277 276 276 275 274 273 272 271 270 271 272 271 271 272 271 272 272
290 288 286 285 283 281 281 282 282 283 284 282 280 278 275 275 276 278 277 277 277 278 276 276 274 273 273 273 273 273 272 271 270 270 269 269 268 268 269 270 271 270 270
285 284 283 282 281 281 280 279 282 283 283 283 282 280 279 279 279 278 278 278 278 279 275 273 270 269 270 271 270 270 270 269 269 268 268 268 266 266 267 268 269 268 269
283 283 281 280 280 279 279 278 276 280 281 281 280 280 279 279 279 278 278 278 278 276 273 271 268 268 269 270 269 269 268 268 268 266 266 266 265 266 265 265 267 268 267
282 282 281 280 280 280 279 279 279 278 276 277 279 279 279 279 277 277 277 277 273 273 273 270 269 268 269 268 268 267 267 266 264 264 264 263 262 263 262 263 265 265 266
281 280 280 280 280 280 280 279 279 279 278 277 277 277 278 277 276 276 275 273 271 271 271 270 270 269 268 267 266 264 261 260 260 258 258 258 259 260 261 262 264 265 266
279 279 279 279 278 278 278 278 277 277 276 276 275 274 273 272 270 269 269 268 269 270 269 269 269 268 266 266 263 260 258 256 257 258 258 255 255 259 260 261 263 263 265
277 277 277 277 276 276 275 275 275 274 274 273 271 272 272 270 270 269 270 268 268 269 267 267 266 264 264 264 264 259 257 254 257 260 259 260 258 259 261 262 262 263 265
276 276 275 274 274 273 273 274 273 273 272 271 271 271 271 269 269 269 268 265 265 267 266 265 263 263 263 261 259 253 254 254 255 257 259 260 261 261 262 261 261 261 264
274 273 273 273 272 272 271 271 270 270 270 270 270 269 268 267 266 266 264 262 264 263 261 260 256 258 258 255 253 255 255 259 260 261 260 260 261 262 262 261 261 261 263
272 271 271 270 270 270 269 268 269 268 268 267 266 266 265 263 261 260 259 257 255 252 251 250 252 255 256 254 253 255 258 258 261 262 262 262 261 262 262 262 262 261 262
270 269 269 268 267 267 266 265 264 264 264 263 261 259 261 258 259 253 249 249 252 249 252 252 252 254 255 255 255 256 256 259 260 261 261 261 261 261 261 262 262 262 262
268 267 266 266 265 264 262 260 258 258 257 256 255 254 255 255 253 248 250 251 251 252 253 253 254 255 255 256 257 259 258 258 258 260 261 261 260 260 261 262 262 262 263

GFSGL_sfc_thetae_066.txt.gz
Theta_e
312 312 310 309 309 311 312 312 314 316 317 316 317 317 317 317 315 315 317 313 311 309 307 306 304 303 302 300 300 300 298 297 294 296 297 296 295 295 295 295 294 293 293
312 313 311 310 311 310 311 314 315 315 318 319 319 318 317 317 316 315 313 308 308 304 302 302 301 301 300 299 299 298 297 297 295 292 294 294 293 293 292 291 293 294 293
311 312 312 311 311 311 312 313 315 316 317 318 318 317 316 314 312 311 310 307 305 304 302 301 300 300 298 298 297 296 296 296 295 292 292 292 292 292 291 290 290 291 292
313 312 312 312 312 312 313 314 316 318 319 319 318 317 314 311 309 307 306 302 301 300 300 300 299 299 297 296 296 295 295 293 291 290 290 289 290 291 288 286 286 288 287
313 313 313 315 315 315 315 316 315 318 319 319 315 310 306 305 304 303 302 300 299 298 298 298 298 297 295 295 295 293 291 290 289 288 287 284 283 283 282 284 282 282 283
314 314 316 316 317 316 317 318 318 317 317 314 310 309 303 303 299 297 299 299 298 296 295 293 292 290 289 289 288 287 286 283 281 280 280 279 279 281 281 280 279 279 278
315 315 316 316 317 317 318 316 312 312 309 306 304 304 301 298 295 296 294 298 296 295 291 289 287 287 285 283 283 283 283 283 280 280 278 278 278 279 279 278 279 278 278
314 315 316 316 316 311 309 308 306 303 304 302 302 300 298 295 293 293 293 292 290 289 288 287 284 283 282 281 279 280 280 281 281 281 279 280 280 281 281 282 281 280 281
312 313 314 314 309 307 305 303 301 300 299 298 298 297 294 292 290 289 289 286 284 283 283 283 283 282 283 283 280 280 279 280 281 281 280 281 281 282 282 280 278 277 275
313 311 310 309 306 304 301 299 299 299 296 295 294 294 290 289 289 288 286 284 281 280 281 281 282 280 282 282 280 279 277 277 277 277 277 278 279 279 280 279 277 274 274
309 307 305 304 301 300 297 297 296 294 291 288 287 287 287 287 287 287 285 283 281 279 278 277 279 281 282 282 280 279 277 277 276 275 275 276 276 276 276 277 277 275 273
303 302 301 298 297 297 295 293 291 288 286 284 283 282 282 283 284 284 284 282 281 278 278 277 279 281 282 280 279 278 277 276 275 273 273 273 273 273 274 274 275 276 276
299 297 296 295 294 293 291 289 287 287 285 284 283 280 279 280 281 282 281 281 280 278 278 279 280 281 279 278 278 277 275 274 272 271 271 271 272 273 273 273 274 274 275
296 293 293 291 290 290 290 289 286 285 284 283 281 279 278 277 277 278 278 278 279 278 278 278 278 278 276 276 276 275 274 273 271 270 270 270 271 271 270 271 270 271 271
291 289 287 286 285 283 283 284 285 285 286 283 282 279 276 275 276 277 278 277 278 278 277 276 275 274 273 273 273 273 272 271 270 270 269 268 268 268 268 269 269 269 268
286 285 284 284 283 283 282 281 283 283 284 283 282 279 279 279 279 279 279 279 279 279 276 273 271 271 271 271 271 270 270 270 269 269 267 267 267 266 266 267 267 267 267
284 283 282 282 281 280 280 279 277 280 282 282 281 281 280 280 279 279 279 279 278 276 273 271 269 269 270 271 270 269 268 269 269 267 266 265 266 265 265 265 265 265 265
282 282 281 280 280 279 279 278 278 277 276 277 280 280 280 279 279 279 279 278 274 274 273 271 269 269 270 269 269 268 267 267 266 265 264 264 263 263 263 262 263 262 264
281 280 281 280 280 280 280 279 279 278 277 276 277 278 278 278 278 277 276 273 272 272 272 271 270 270 269 268 267 266 265 264 263 262 261 261 260 261 261 261 261 261 262
279 279 279 278 278 278 278 277 277 277 276 276 275 273 273 272 270 270 270 270 271 271 270 270 270 269 267 266 265 264 263 262 262 261 261 259 258 258 260 260 261 261 262
276 276 276 276 275 275 275 274 274 274 273 272 271 272 272 271 270 270 270 269 269 269 268 267 266 266 265 265 264 263 261 259 259 259 259 260 258 258 260 261 262 262 262
275 274 274 273 274 273 273 273 272 272 271 271 271 270 270 269 269 267 266 265 265 266 265 264 263 263 263 262 261 258 257 254 255 258 257 258 260 261 261 261 261 261 261
273 272 272 272 271 271 270 270 270 269 268 268 268 267 267 266 265 265 263 260 260 258 258 258 256 258 259 256 254 256 255 257 259 259 259 259 260 261 261 261 261 261 261
271 270 270 269 269 268 267 266 267 267 266 265 264 263 261 260 257 255 254 252 253 251 249 249 252 255 256 255 254 255 257 257 259 260 260 260 260 260 261 261 261 262 262
268 267 266 266 265 264 263 262 262 261 260 258 257 255 259 257 257 250 248 249 250 248 252 251 252 254 254 254 255 255 255 258 259 260 259 259 259 259 259 260 261 262 262
266 265 264 264 262 261 259 256 253 253 252 253 252 252 253 252 252 247 249 250 251 252 252 253 253 254 254 255 256 258 256 257 258 258 259 259 259 259 260 260 261 262 263

GFSGL_sfc_thetae_069.txt.gz
Theta_e
316 316 316 316 316 316 316 317 317 318 318 317 319 319 319 320 321 321 322 322 320 320 315 315 314 314 309 306 306 304 303 305 300 299 300 300 301 304 301 302 302 302 302
317 316 316 316 315 315 315 315 316 316 318 319 317 318 320 320 321 320 317 315 315 314 312 311 311 307 305 303 303 300 300 300 300 297 298 301 299 298 299 300 299 298 299
316 317 316 315 314 315 315 317 318 318 319 320 319 319 319 316 316 316 316 315 313 313 311 307 305 304 302 300 300 298 299 298 298 297 294 296 295 296 297 298 297 296 295
316 316 316 316 315 316 317 317 318 318 318 318 317 319 320 319 316 316 315 314 311 309 306 305 303 301 300 300 299 298 298 296 294 293 292 292 293 297 296 293 291 292 289
315 315 315 317 316 316 317 317 317 318 318 319 319 320 320 317 313 312 311 309 304 302 302 301 301 300 298 298 298 296 295 294 292 291 291 290 291 291 289 289 286 287 288
316 315 316 316 316 316 316 316 317 318 320 322 321 320 311 310 299 299 304 304 301 300 297 296 295 293 291 291 291 290 292 291 289 291 289 288 288 286 287 285 284 283 282
316 316 316 316 316 317 316 316 317 318 320 321 318 315 310 308 296 297 298 302 299 297 293 291 289 288 287 286 285 284 284 283 283 287 287 285 284 286 285 284 283 283 283
316 316 317 317 317 318 318 318 318 318 316 313 309 307 302 298 294 295 295 297 294 292 290 288 286 285 284 283 282 282 283 283 285 285 286 286 285 285 285 285 284 284 284
317 317 317 318 318 319 318 314 305 305 303 302 301 299 296 294 291 291 291 289 287 286 285 285 284 284 284 284 283 282 283 283 282 281 280 280 280 281 282 283 281 279 279
317 318 319 319 318 312 308 303 301 301 298 297 295 295 292 290 289 289 289 286 283 282 283 282 283 283 283 283 284 284 282 281 281 280 280 280 280 281 279 280 280 277 277
315 312 310 309 306 304 300 300 298 295 293 290 288 289 289 288 288 288 287 285 282 281 280 280 281 283 283 282 282 283 281 280 277 278 278 279 279 279 279 279 278 278 277
306 304 302 302 300 299 297 294 292 290 287 285 284 283 284 285 286 286 285 284 283 281 280 282 283 283 282 281 280 279 277 278 278 277 277 277 276 276 276 276 276 277 278
300 299 299 297 296 297 294 291 288 287 285 284 283 281 280 282 282 284 283 282 282 282 281 282 282 282 280 279 278 277 276 277 276 276 275 275 275 275 275 275 276 276 277
296 295 294 292 291 291 290 289 288 286 285 284 282 280 279 279 279 280 280 281 281 281 281 282 281 280 279 278 278 277 277 276 275 275 274 274 274 274 273 274 273 274 273
292 290 289 288 286 284 284 287 287 286 287 285 283 281 278 277 278 279 280 279 280 280 280 279 278 277 276 276 276 275 275 275 274 274 273 272 272 272 272 272 272 272 271
288 287 287 286 285 284 283 281 283 283 284 284 282 280 280 280 281 281 280 280 279 279 278 276 275 275 275 275 275 274 274 272 273 272 271 270 270 270 270 270 271 270 270
285 284 284 284 283 282 281 280 278 281 283 282 282 282 281 281 281 281 280 280 279 277 276 275 274 274 274 274 274 273 272 271 271 270 270 269 269 269 268 269 269 269 269
282 282 281 281 280 280 279 279 279 277 276 278 281 280 280 280 280 280 279 278 277 276 276 275 274 274 274 273 272 271 271 270 270 269 269 268 267 267 267 267 268 267 268
281 281 281 281 281 280 280 279 279 279 279 278 278 278 279 279 278 278 277 276 275 274 274 274 274 274 273 272 271 270 269 268 268 267 267 266 267 267 266 266 267 265 265
278 279 279 279 279 279 279 280 279 278 278 277 275 275 276 276 275 274 275 275 274 273 273 273 272 272 271 270 269 269 268 268 268 267 267 266 266 266 265 265 266 266 267
276 276 277 277 277 277 277 277 277 276 275 275 274 274 273 274 273 273 272 271 271 271 270 270 270 269 269 268 268 267 266 266 266 265 265 265 265 264 265 266 266 266 266
276 275 275 275 275 274 274 275 275 274 273 273 272 271 271 272 271 270 269 269 269 269 268 267 267 267 266 266 265 265 264 263 264 264 264 263 264 265 265 265 265 266 266
274 273 273 272 272 272 272 272 271 271 270 270 270 269 269 269 268 268 266 266 266 265 265 265 264 263 264 264 264 263 262 262 263 263 263 263 264 264 264 264 265 265 265
272 271 270 269 269 269 269 269 269 268 268 268 268 267 267 266 265 264 264 264 264 264 263 262 262 261 261 261 263 263 263 263 263 263 263 263 263 263 264 264 264 264 265
269 268 267 267 266 266 266 266 265 265 265 265 265 265 265 264 264 263 263 262 261 261 261 261 261 261 260 259 259 260 260 260 261 261 262 262 262 262 262 263 263 264 265
267 266 266 265 264 264 264 263 263 263 262 262 263 262 263 262 262 262 261 261 260 260 260 260 260 259 258 259 260 260 258 258 259 260 261 262 262 262 263 263 263 264 264

GFSGL_sfc_thetae_072.txt.gz
Theta_e
321 323 323 322 322 324 325 325 325 326 325 324 323 324 322 323 323 323 323 323 323 324 325 324 323 324 317 316 316 315 310 310 305 302 305 304 303 305 304 308 307 306 306
322 323 323 323 322 322 323 325 327 326 326 325 323 321 322 322 323 324 323 322 323 323 323 322 318 316 314 313 311 307 306 308 305 300 300 302 302 305 307 304 302 304 304
322 322 322 322 322 323 322 322 323 323 323 324 323 323 322 323 322 322 324 322 323 322 321 316 314 314 311 306 306 304 304 303 301 301 299 303 304 299 298 299 301 301 300
322 322 321 321 323 322 322 321 322 322 320 321 322 322 323 322 320 321 318 317 316 315 316 316 314 313 311 305 303 302 300 300 300 302 302 296 297 297 298 297 296 298 295
322 322 323 322 322 322 321 321 322 322 321 321 322 323 323 320 317 318 320 319 315 313 311 310 310 307 302 302 303 302 300 298 297 299 294 294 293 293 293 296 292 292 292
322 321 322 323 322 322 321 321 322 321 321 322 323 322 321 320 306 302 313 316 313 309 305 302 302 300 297 294 294 294 297 295 294 293 292 291 293 293 292 291 290 288 286
321 322 321 322 321 322 321 321 320 321 322 322 321 321 322 322 298 299 299 315 310 305 300 296 293 291 291 289 287 286 285 286 287 294 292 291 289 290 290 289 288 288 287
321 321 321 321 321 321 321 320 321 321 321 321 322 322 322 318 297 297 294 304 299 297 295 293 289 287 287 286 284 284 283 284 285 286 288 288 288 290 289 288 288 288 288
321 321 321 322 320 321 320 321 321 320 319 318 316 313 311 302 294 294 295 293 289 288 288 288 287 285 285 287 284 283 283 282 282 282 282 282 281 281 282 286 284 283 283
321 321 322 322 322 321 322 319 311 313 307 300 297 298 294 293 292 292 292 289 285 284 285 285 285 285 284 285 284 283 282 281 282 281 283 281 281 283 279 282 283 281 281
321 322 322 323 322 321 310 309 305 298 295 293 292 290 291 290 289 289 289 287 284 282 281 281 282 283 283 284 285 285 284 284 280 283 283 283 284 284 283 284 283 282 281
317 314 313 312 306 306 303 299 298 293 289 287 286 285 286 286 287 286 286 285 284 282 281 282 283 283 282 282 281 280 280 281 282 281 281 281 282 281 282 282 281 281 281
307 304 302 300 299 300 296 294 291 290 288 285 284 282 282 283 284 285 284 283 282 282 283 283 282 281 281 280 279 278 279 280 281 281 280 280 280 280 279 279 280 279 280
298 296 295 293 292 293 292 291 289 287 285 284 282 281 280 280 280 281 281 282 282 282 282 282 281 281 281 279 278 279 280 279 279 279 278 278 278 278 277 278 277 277 277
292 291 289 288 286 284 284 287 287 287 287 284 282 281 279 278 279 281 281 281 282 282 282 281 280 280 280 280 279 279 279 279 278 278 277 276 276 276 276 277 275 275 275
288 287 286 286 285 284 282 281 283 284 284 284 283 281 280 281 282 282 282 281 281 281 281 281 280 280 279 279 279 278 278 275 276 275 275 275 274 274 274 275 275 274 274
285 285 284 284 283 282 282 281 278 281 283 282 282 282 282 282 282 282 281 280 279 280 280 280 279 279 278 278 278 277 275 275 274 275 274 273 273 273 272 273 273 273 273
282 282 282 281 280 280 280 280 279 278 277 278 281 282 282 281 282 281 280 279 278 278 278 277 276 276 276 275 275 275 275 274 274 273 272 272 272 271 271 272 272 272 272
281 280 281 281 281 280 280 280 280 279 278 279 279 280 280 280 279 279 279 280 278 277 277 276 276 276 275 275 274 273 273 272 271 271 271 271 271 271 270 271 271 269 269
279 279 280 280 281 281 280 280 280 280 278 278 278 277 279 279 278 277 278 278 277 276 276 275 274 274 273 273 272 272 272 271 271 270 270 270 270 270 269 269 269 269 270
280 280 278 279 278 279 279 279 278 278 277 276 275 276 277 277 276 275 274 274 273 273 273 273 272 272 271 271 271 270 270 269 269 269 268 268 268 268 268 268 269 269 269
279 278 278 278 278 277 277 277 277 276 275 274 273 274 274 274 273 272 272 271 271 271 271 271 271 270 270 269 268 268 267 267 267 267 267 267 267 267 267 267 267 268 268
277 276 276 275 275 274 274 274 274 274 273 273 273 272 272 272 271 270 270 270 270 269 269 269 268 267 268 268 267 267 266 266 266 266 265 265 266 266 267 266 266 266 267
275 274 273 273 273 273 273 272 271 270 271 271 271 270 270 270 269 268 268 268 268 268 268 267 266 265 265 265 266 266 266 266 266 265 265 265 265 265 266 266 266 266 266
273 272 272 272 271 271 271 270 270 270 269 270 269 269 269 268 268 267 267 267 265 265 265 265 265 264 263 262 262 263 263 262 262 263 263 264 264 265 265 265 266 266 266
270 270 270 270 269 269 268 268 267 267 267 267 267 267 267 266 267 266 265 265 264 263 264 265 264 263 262 263 263 262 260 259 260 260 262 264 264 265 266 266 265 266 266

GFSGL_sfc_thetae_075.txt.gz
Theta_e
326 325 325 327 327 329 328 328 328 328 327 326 325 324 323 323 324 324 323 324 322 323 324 324 324 326 325 325 324 321 319 314 309 309 307 310 307 307 304 307 309 308 307
327 327 327 327 326 327 328 329 330 328 328 327 326 325 325 324 325 324 323 322 323 322 324 324 323 323 323 325 320 316 314 312 309 307 301 303 302 305 304 304 307 308 308
325 325 327 327 327 326 327 328 328 329 328 326 325 325 324 324 324 324 324 324 324 323 324 324 323 324 321 318 315 312 312 310 309 306 300 301 301 302 303 302 301 302 303
325 324 324 327 327 327 327 327 327 327 327 327 326 326 325 324 324 324 323 323 324 323 323 323 323 321 317 315 311 310 309 305 303 302 300 299 299 300 298 298 298 300 298
326 325 325 327 327 326 327 326 326 326 326 327 326 326 327 325 323 324 323 321 319 319 319 318 318 314 307 310 312 309 305 304 300 300 296 297 296 295 295 297 294 296 297
327 326 326 326 326 326 327 327 326 325 325 326 325 325 325 323 309 302 311 317 315 315 315 317 315 305 304 298 298 299 302 301 299 298 295 294 294 295 294 294 293 290 288
326 326 326 327 326 327 326 325 325 324 325 324 324 324 324 325 302 301 300 318 316 316 317 312 302 299 299 295 290 289 288 288 289 295 292 291 291 292 293 291 289 289 288
325 325 326 326 326 326 326 325 325 325 324 324 324 325 324 323 298 300 297 316 318 315 308 302 296 292 292 290 288 286 285 285 286 288 289 288 287 290 290 290 290 289 290
324 324 324 325 324 325 325 325 326 325 324 323 323 322 320 320 296 297 300 298 292 290 290 291 291 288 288 289 286 285 285 283 284 284 284 284 283 283 283 288 286 285 285
323 324 325 325 325 324 325 325 325 324 322 317 305 303 297 300 293 294 295 292 287 286 287 287 287 286 285 286 285 283 280 280 280 280 280 281 281 281 280 283 284 282 282
319 323 324 324 324 323 324 326 324 315 303 296 292 292 291 292 290 292 291 288 285 283 283 283 284 285 285 285 285 284 282 283 281 283 283 284 284 285 285 284 284 283 281
319 320 321 322 319 322 321 315 306 300 292 289 287 285 286 286 287 287 287 286 285 283 281 282 283 284 283 282 281 282 282 283 282 282 282 281 282 282 283 283 283 282 282
313 308 305 303 303 305 302 297 294 294 291 289 287 284 283 284 285 285 285 284 284 283 282 282 283 281 280 279 280 280 281 282 281 281 280 280 281 281 280 280 281 281 281
295 294 293 292 290 291 291 292 292 291 288 285 283 281 280 281 282 283 283 283 283 282 281 281 281 281 280 279 279 280 280 280 279 280 279 280 280 279 279 279 279 279 277
289 289 287 286 285 284 284 286 286 286 287 284 283 282 280 279 280 282 282 282 282 281 281 281 280 280 280 280 279 279 279 279 278 279 278 278 277 278 277 278 277 277 275
286 285 284 284 283 283 282 281 283 283 284 283 283 281 282 283 283 284 284 283 282 282 281 281 281 282 280 280 279 278 278 277 277 277 277 276 275 275 275 276 276 275 274
283 282 282 282 282 281 281 280 278 281 283 283 283 283 283 283 282 282 282 282 282 283 282 281 281 280 279 279 278 277 276 276 275 276 275 275 274 274 273 273 273 274 273
282 282 281 280 280 280 279 279 279 278 277 278 282 282 282 282 281 281 281 281 280 280 280 279 278 278 277 277 276 276 276 276 275 274 273 273 273 272 271 271 272 272 272
281 281 281 281 281 281 280 280 279 278 277 277 278 279 280 280 281 281 282 280 278 278 278 277 278 277 276 276 275 275 274 274 273 273 273 272 272 271 270 270 271 270 270
281 281 282 282 282 282 281 279 279 279 278 278 278 278 280 279 277 277 278 277 277 276 276 275 275 274 274 274 273 273 273 272 272 271 271 271 270 270 269 269 269 269 269
281 282 281 280 279 279 279 278 277 276 275 275 275 276 277 276 274 274 273 273 273 273 273 273 273 273 272 272 272 271 270 270 270 269 269 269 269 268 268 269 269 269 269
278 278 278 277 278 278 278 278 276 275 274 274 274 274 274 274 273 272 271 271 272 272 272 272 271 271 271 270 269 269 268 268 268 268 268 267 267 268 268 268 268 268 267
278 277 276 276 275 275 275 275 275 274 273 273 273 272 272 272 271 271 270 271 270 270 269 269 269 268 269 268 268 268 267 267 267 267 266 266 266 266 267 266 267 266 267
276 276 275 274 274 274 274 273 273 272 272 272 272 271 271 271 270 269 269 269 269 269 268 267 267 266 265 266 267 267 267 267 266 265 265 265 265 266 266 266 266 266 266
274 274 273 273 272 272 272 271 271 271 271 271 270 270 270 270 269 269 268 268 266 267 266 266 266 266 265 264 264 264 264 263 262 262 263 264 264 265 265 266 266 266 267
272 271 271 271 271 271 270 270 270 269 269 269 269 268 268 268 268 267 267 266 264 264 265 266 266 265 264 265 265 263 261 260 260 261 261 263 264 265 266 266 266 265 266

GFSGL_sfc_thetae_078.txt.gz
Theta_e
324 323 322 322 323 322 322 323 322 322 321 320 319 318 318 317 316 316 316 317 317 316 316 316 317 318 319 320 318 318 316 315 311 312 310 310 307 308 305 305 304 303 300
323 324 324 324 323 323 323 323 324 322 323 321 321 319 319 318 317 316 316 317 316 316 316 316 316 318 319 319 318 317 317 317 314 310 308 305 306 307 303 302 306 307 305
323 323 323 323 323 323 323 324 324 324 322 322 322 320 319 318 318 317 316 316 317 317 317 317 317 317 316 317 317 317 317 313 313 312 309 304 304 303 301 301 302 302 303
324 323 322 323 323 323 323 324 325 324 323 323 322 322 321 321 320 319 318 317 317 318 318 318 318 317 316 317 316 316 313 312 311 310 309 303 301 300 302 299 296 299 299
324 323 321 323 324 324 323 323 323 324 324 324 322 321 321 320 320 319 319 318 317 317 318 318 318 316 309 312 316 314 313 310 310 307 305 298 297 294 296 298 296 295 296
325 324 323 323 322 323 323 323 322 322 322 323 322 321 320 320 308 303 312 318 317 317 316 316 313 306 304 300 301 302 308 309 308 305 303 298 298 298 297 293 291 289 286
325 325 325 324 322 322 323 323 322 321 321 321 321 321 321 321 303 302 300 317 317 316 313 313 309 306 303 307 290 291 289 288 287 301 300 292 289 291 290 287 286 285 285
324 324 325 325 323 323 323 322 321 321 320 320 320 320 320 320 302 299 298 313 317 313 311 311 311 301 295 292 288 286 286 286 287 289 287 286 287 288 288 287 286 286 288
314 323 324 324 323 323 322 322 322 321 320 320 320 319 318 318 300 297 298 311 305 293 292 292 292 290 290 291 288 285 282 282 286 287 286 286 285 284 285 286 283 283 283
312 319 321 324 323 322 322 322 322 322 320 319 317 310 305 311 293 294 300 297 288 286 286 287 287 287 287 288 287 285 282 280 281 280 281 282 282 282 282 282 282 281 281
308 315 314 317 322 322 321 321 321 320 307 296 291 290 291 292 292 294 294 291 287 285 284 284 285 286 286 286 285 283 281 282 282 282 282 282 283 283 282 282 282 281 280
301 302 302 302 304 313 317 308 305 300 293 289 287 285 286 286 288 289 289 287 287 284 282 283 284 285 285 284 283 283 283 282 282 281 281 281 281 281 281 281 281 280 281
292 290 290 291 293 297 299 297 295 294 291 287 286 284 283 284 285 286 286 285 284 283 283 283 283 283 282 282 282 282 282 281 281 280 279 280 279 279 279 280 280 280 280
288 287 287 286 285 285 290 290 290 288 287 286 284 282 281 282 283 283 283 283 283 282 281 280 279 279 280 280 280 280 279 279 279 278 278 278 279 278 278 279 278 278 276
287 286 285 284 283 282 282 283 284 285 287 284 282 282 281 279 281 283 282 280 280 280 280 279 278 279 279 278 278 279 279 279 278 277 277 277 277 276 276 276 275 274 272
284 283 283 283 282 281 281 280 283 283 284 284 283 282 283 284 284 283 283 283 283 282 280 279 279 279 278 278 277 277 277 275 275 276 275 275 274 273 273 273 273 271 272
282 281 281 281 280 280 280 279 278 281 283 283 283 283 283 283 283 283 284 284 284 283 280 279 278 277 276 276 276 275 274 274 276 274 273 272 272 272 272 271 272 271 271
282 281 281 280 279 279 279 278 278 277 276 277 281 281 282 283 283 283 282 281 278 278 278 276 276 276 276 275 275 274 273 273 272 272 270 269 268 270 269 269 269 266 268
281 281 281 281 280 280 280 279 278 277 276 276 278 278 279 280 280 280 280 277 276 275 275 274 274 274 274 273 273 272 272 271 269 269 269 269 265 265 264 265 265 265 265
280 280 280 279 278 277 277 276 275 275 275 275 276 276 276 274 273 273 273 273 273 273 273 272 272 272 272 272 271 270 270 269 269 268 265 263 262 263 263 263 262 263 266
278 278 278 279 278 276 275 274 274 273 272 272 272 273 273 272 271 270 270 270 270 270 271 272 271 270 270 269 269 268 267 266 267 266 265 265 261 261 264 263 263 264 266
277 276 276 275 276 275 275 275 275 274 273 272 272 272 272 271 270 270 269 269 269 269 269 269 268 268 267 267 266 264 264 262 263 264 263 262 262 261 262 262 261 261 264
276 275 275 274 274 273 273 273 273 272 271 271 271 270 270 269 269 268 268 268 268 268 267 267 266 265 265 264 265 265 264 264 264 263 259 258 260 261 260 260 262 261 261
274 274 273 272 272 272 272 271 271 271 271 270 269 269 268 268 267 266 266 265 265 266 264 263 265 262 262 260 260 260 263 260 260 259 259 259 259 261 259 261 261 260 262
272 271 271 271 270 270 269 269 269 269 268 268 268 268 268 267 267 265 264 264 262 262 262 264 261 261 261 258 259 260 258 256 254 255 256 258 259 258 260 262 262 264 263
270 270 269 269 269 268 268 267 267 267 266 266 266 266 266 265 264 264 263 260 258 260 261 261 262 260 260 261 261 257 255 256 255 256 255 259 258 260 262 261 260 262 263